GFSFLT1_sfc_temp_000.txt.gz
Temp
100 98 99 96 94 94 92 92 92 91 90 87 88 88 87 87 87 90 90 89 91 90 90 90 89 85 85 85 85 84 83 84 84
99 98 98 97 96 95 94 93 92 91 89 88 89 89 87 86 87 87 90 90 89 90 88 91 87 85 85 85 85 83 82 84 82
99 99 98 100 98 97 96 96 95 93 92 89 90 90 89 89 88 87 88 89 86 87 88 86 85 85 85 84 83 83 81 83 83
101 100 98 99 100 100 98 98 97 95 93 90 90 91 90 89 89 90 88 88 84 85 84 84 83 83 83 83 82 82 80 80 82
105 102 100 99 101 101 99 97 98 97 96 94 93 93 90 89 90 89 88 85 84 82 80 82 80 81 79 81 83 82 80 80 83
101 97 98 98 100 98 98 98 97 98 97 98 97 94 92 90 89 88 87 80 76 79 80 76 76 76 76 77 79 81 81 81 81
99 95 94 95 96 96 96 96 95 96 97 99 99 97 94 90 88 88 84 81 73 75 77 77 72 74 74 78 81 81 81 82 81
98 93 92 92 94 93 92 93 93 93 96 96 97 95 94 91 88 84 81 78 75 75 75 75 72 74 74 77 79 79 80 81 81
97 93 93 92 93 93 91 92 91 92 92 94 94 92 91 91 83 81 75 76 76 78 77 77 75 75 75 76 79 72 69 76 81
96 95 94 92 92 93 93 93 92 91 90 92 90 88 89 87 81 78 75 76 77 77 77 76 79 78 77 75 77 67 67 68 80
98 97 96 93 96 94 92 95 95 93 91 88 87 85 85 84 79 77 76 76 77 77 78 76 78 77 76 77 79 65 63 66 78
96 97 97 95 96 93 90 93 92 90 89 87 86 84 83 80 79 76 75 75 75 78 78 78 79 78 77 76 78 60 60 65 80
94 96 95 93 93 92 91 91 92 89 88 86 84 84 83 79 78 77 75 76 76 76 77 77 78 77 78 74 76 60 58 64 82
92 92 90 91 91 90 89 90 91 88 88 86 87 86 82 78 79 78 77 76 75 76 76 74 76 76 77 74 70 75 56 56 74
87 88 90 92 89 87 89 90 90 87 86 87 86 84 78 76 77 78 80 74 73 72 73 74 74 72 74 76 79 61 57 54 57
89 90 91 93 89 86 87 87 88 85 83 83 82 76 74 75 75 76 77 73 71 72 74 77 71 72 75 79 80 72 54 53 53
86 87 87 90 88 86 82 82 84 83 80 81 80 75 74 72 74 74 74 74 75 75 74 75 72 75 74 76 72 77 72 66 65
83 83 85 87 86 84 81 81 81 81 80 79 77 74 73 74 74 73 75 71 66 78 69 68 80 80 76 69 73 79 67 67 77
78 81 82 82 82 81 80 80 79 80 78 77 76 73 76 76 77 78 76 74 70 46 48 46 45 45 59 71 53 47 46 45 44
70 77 78 80 81 81 80 80 80 81 81 80 78 80 79 81 78 83 81 80 78 75 58 44 43 43 44 48 47 44 43 42 42

GFSFLT1_sfc_temp_003.txt.gz
Temp
106 103 103 101 99 98 96 96 95 95 92 89 90 90 89 89 89 91 92 90 93 92 92 92 90 87 87 85 86 85 84 84 84
105 103 103 101 100 99 97 96 95 94 92 90 91 91 90 89 89 89 91 91 90 93 91 92 89 88 85 85 85 85 83 83 83
103 105 103 103 102 100 99 99 97 96 95 91 91 92 92 91 90 89 90 91 90 90 90 88 88 86 85 85 85 84 82 83 83
105 104 103 103 103 103 101 100 99 97 96 93 92 93 92 92 91 91 90 90 90 89 89 86 86 84 84 84 84 83 81 81 83
106 105 105 105 105 104 102 101 100 99 97 96 94 94 93 92 91 91 90 89 90 87 86 86 84 83 82 83 83 78 81 81 83
103 105 105 105 105 105 103 102 100 102 100 100 99 95 94 93 91 91 89 88 88 85 85 83 84 83 81 81 82 82 82 82 81
103 104 101 103 104 104 104 102 98 99 101 102 101 98 96 92 91 90 90 88 86 84 83 82 82 82 81 81 82 82 82 82 81
101 102 102 100 101 101 99 99 97 98 101 100 101 97 96 93 91 90 89 86 84 82 82 81 81 81 81 82 83 85 82 82 81
99 101 103 100 99 100 99 99 98 98 98 100 99 95 95 93 89 87 86 83 81 79 82 82 82 79 80 79 84 73 71 78 80
99 101 103 103 99 99 99 99 98 98 96 98 96 94 94 93 88 84 80 81 79 78 79 81 81 78 79 79 80 67 67 69 80
100 102 103 104 104 100 99 101 101 99 97 93 93 91 91 90 86 81 78 77 77 78 80 80 81 79 81 80 81 65 64 67 74
103 104 106 106 104 102 98 99 98 96 94 92 91 89 89 89 84 80 77 76 78 79 79 81 78 78 76 78 78 62 61 67 75
101 103 106 105 102 101 97 97 97 94 92 90 89 89 88 88 83 79 78 77 77 78 80 80 81 79 76 75 78 59 59 65 72
98 100 101 100 99 95 94 97 96 90 90 88 90 90 88 85 82 78 79 78 78 77 77 75 73 73 79 78 77 74 57 57 75
95 96 96 97 93 92 94 95 92 89 88 90 90 88 86 82 79 79 79 77 77 76 74 75 76 75 77 80 78 64 57 56 57
91 91 92 94 92 90 92 92 91 88 88 88 87 85 80 78 78 77 78 79 77 75 77 79 77 78 78 79 80 74 56 55 54
91 91 90 92 90 88 87 90 90 88 87 87 84 77 75 76 75 76 76 80 77 74 76 77 80 79 76 76 76 68 69 71 68
87 87 89 88 86 85 84 85 84 86 85 85 78 74 74 75 77 76 76 76 72 75 76 66 80 81 75 74 78 79 69 64 72
83 84 85 84 84 84 83 83 83 83 83 83 79 76 77 78 79 78 73 72 70 48 49 47 47 46 61 71 53 47 47 46 48
72 83 84 84 84 84 84 84 83 80 81 82 78 79 78 80 80 80 79 78 79 76 59 46 45 44 46 50 49 45 44 44 44

GFSFLT1_sfc_temp_006.txt.gz
Temp
102 101 103 100 97 95 92 92 91 90 86 84 85 85 83 83 83 85 85 86 87 86 84 85 82 82 82 82 79 79 78 78 77
102 101 101 101 99 97 93 92 91 89 86 85 85 86 84 84 83 84 85 85 85 86 84 87 83 83 82 81 80 79 78 76 76
102 104 101 102 101 98 96 95 93 92 90 86 86 87 86 86 85 85 85 85 84 84 85 85 82 82 81 81 78 79 77 77 78
102 103 101 103 102 101 98 97 94 93 91 88 87 87 87 86 86 86 85 86 85 84 85 83 82 81 80 79 79 79 76 76 76
102 101 102 103 103 101 98 96 95 94 93 92 89 88 87 86 86 86 85 84 86 85 84 83 81 81 80 80 79 78 76 76 77
99 103 100 102 104 99 98 96 94 95 94 94 93 89 89 87 86 85 85 84 85 84 84 82 82 81 79 78 78 77 76 76 76
100 100 96 100 100 99 98 95 92 92 94 96 94 91 90 87 86 86 86 85 84 85 84 82 82 80 79 78 78 77 77 77 76
98 99 96 98 99 95 93 92 91 92 94 93 95 90 90 88 87 87 86 85 84 84 83 83 82 80 79 78 79 81 77 77 76
95 96 98 97 96 97 95 93 91 92 92 92 93 89 89 88 87 85 85 84 83 83 82 81 80 78 77 75 80 74 72 76 77
95 97 98 98 97 96 97 97 93 92 91 93 91 88 89 87 86 85 84 84 83 82 80 80 78 77 76 74 76 67 68 71 77
92 97 98 98 102 98 96 102 101 96 94 90 89 88 87 87 86 84 84 83 82 81 79 78 78 76 74 75 76 66 65 69 72
98 98 100 99 103 102 95 98 97 94 93 91 90 89 87 88 87 84 83 81 79 79 77 76 76 75 75 74 75 63 62 65 69
101 102 103 100 101 101 96 95 98 93 92 91 89 89 88 88 85 82 79 78 77 76 78 77 79 77 75 71 75 61 59 64 74
95 100 100 102 99 95 93 94 96 90 90 88 90 90 89 86 83 80 78 76 76 76 77 77 75 73 73 74 74 69 58 59 73
93 94 98 100 95 92 92 93 90 87 86 88 88 86 86 83 80 79 78 75 75 75 75 73 73 73 73 74 74 64 57 56 59
93 95 96 97 92 89 91 89 87 84 84 85 84 83 82 80 78 77 76 76 73 73 75 76 74 74 71 71 72 69 59 55 55
89 91 89 90 88 85 84 85 86 85 85 84 83 80 78 77 76 76 77 76 76 77 76 76 74 73 70 72 71 72 66 65 60
84 83 82 84 84 83 83 84 83 85 84 82 78 77 76 74 74 74 74 68 67 76 63 63 75 73 72 74 71 72 68 68 72
75 76 78 78 82 81 80 82 82 82 81 79 77 76 75 75 72 73 71 69 65 47 48 46 47 49 63 60 51 49 48 48 48
67 76 81 82 82 82 81 80 80 82 80 79 77 75 73 73 71 73 73 73 72 66 55 46 45 44 46 53 49 46 45 45 46

GFSFLT1_sfc_temp_009.txt.gz
Temp
93 91 93 91 88 88 87 87 84 83 80 80 81 80 80 80 78 82 79 77 77 79 79 79 77 78 77 74 75 72 71 69 69
90 94 91 92 90 89 87 87 84 83 81 81 81 81 80 80 80 81 79 76 77 77 80 79 78 77 76 75 73 72 70 69 69
88 90 91 93 91 89 88 88 86 85 83 81 82 82 81 81 81 82 80 76 78 78 77 78 78 76 77 74 74 72 70 69 69
89 90 93 93 92 91 89 89 87 85 83 82 82 82 82 81 81 81 81 78 79 78 78 76 78 78 75 75 74 73 70 69 69
90 85 92 95 94 92 88 88 88 86 84 83 83 83 83 82 82 81 81 81 79 78 79 78 78 77 77 75 75 73 72 70 72
88 85 90 93 94 91 89 88 88 87 86 84 85 84 83 82 82 81 81 81 80 79 81 78 77 78 76 75 74 73 73 72 69
88 86 85 89 91 90 90 89 88 88 87 87 85 84 83 82 82 82 82 82 81 79 79 77 77 77 76 75 75 74 73 71 68
86 87 83 84 90 89 89 88 88 88 88 88 87 85 83 83 83 83 83 82 81 81 78 77 77 74 74 73 74 76 71 72 68
86 85 85 84 85 89 88 87 86 88 88 89 89 85 84 84 83 82 81 81 80 79 79 76 76 75 74 71 76 71 70 72 71
85 83 86 86 84 82 90 88 89 87 87 89 88 86 84 84 83 81 81 80 79 77 78 76 75 74 74 71 70 67 68 70 71
84 88 84 84 90 84 83 90 90 90 88 87 86 85 83 84 83 82 81 80 79 78 78 76 74 74 72 70 69 65 65 68 70
86 90 89 83 83 87 87 89 90 89 87 85 85 83 83 83 83 81 81 80 78 77 76 74 75 72 70 68 69 62 61 64 66
80 83 83 85 87 82 84 86 91 88 86 86 84 86 84 84 84 82 79 79 76 74 73 72 72 71 69 67 70 61 61 63 68
80 79 81 82 85 85 84 83 90 87 87 86 87 87 82 81 81 79 76 74 72 72 72 72 72 71 70 71 71 65 59 59 69
78 77 82 81 81 81 81 81 87 85 86 85 81 83 79 78 75 75 73 72 72 72 71 70 69 69 70 69 69 61 57 58 60
79 78 78 80 78 76 76 79 83 79 77 80 81 78 76 74 73 72 71 70 70 70 69 69 70 70 66 66 67 65 57 56 56
74 75 75 77 78 75 75 77 78 78 79 80 78 74 73 73 72 71 71 70 71 70 68 68 66 66 66 66 65 63 59 56 56
65 70 73 76 76 76 74 77 77 78 79 78 74 72 71 71 72 71 62 55 57 63 54 61 67 67 66 64 64 65 60 59 60
62 62 66 74 75 75 74 74 74 74 74 73 71 70 70 70 70 64 61 60 56 47 47 46 47 51 60 55 51 53 51 50 51
60 62 61 69 72 73 72 73 72 73 73 73 72 70 70 71 68 68 65 63 61 56 51 46 44 45 52 53 48 47 45 45 46

GFSFLT1_sfc_temp_012.txt.gz
Temp
84 87 88 87 86 85 86 84 82 80 78 78 79 78 78 78 78 79 77 73 73 76 78 79 77 76 74 71 71 70 68 67 67
85 88 88 89 87 87 86 84 82 80 78 80 79 79 79 78 78 79 78 73 76 77 78 79 76 76 74 73 72 71 68 67 67
87 89 90 91 90 88 87 87 84 82 80 80 80 80 80 79 79 79 78 75 75 76 77 77 76 75 75 74 72 71 68 66 67
89 89 89 91 91 89 88 87 84 82 80 80 80 80 80 80 79 80 79 76 76 76 77 77 76 75 75 74 72 71 69 67 67
90 91 89 89 91 89 87 85 84 82 81 81 81 81 80 80 79 79 79 78 78 76 77 77 77 76 75 74 74 72 70 68 70
82 85 83 84 88 87 86 85 84 83 82 82 82 82 80 80 79 78 78 79 80 77 77 76 76 76 75 75 73 73 72 70 68
84 85 85 87 87 87 86 85 85 83 83 83 83 82 81 79 79 79 79 80 79 79 78 75 75 76 76 75 74 72 72 70 69
80 88 82 85 87 87 84 84 85 84 84 83 83 82 81 80 80 80 79 79 79 79 78 77 76 75 75 75 73 73 71 71 69
80 81 81 84 88 87 85 85 84 85 84 83 83 81 81 81 80 80 79 79 78 78 75 75 74 74 73 71 73 70 68 71 69
79 78 80 82 87 88 88 87 86 84 84 84 83 82 81 81 80 79 78 79 78 76 77 73 73 72 72 71 72 66 66 67 71
78 82 79 85 86 88 89 90 87 87 86 84 82 82 81 81 80 79 79 78 77 76 77 74 74 72 73 71 71 64 64 66 69
81 80 81 80 82 82 82 88 87 86 85 84 83 82 81 81 80 79 78 77 77 76 76 75 74 73 71 71 70 61 61 64 68
79 76 80 81 82 77 83 87 89 86 84 84 83 83 83 82 81 80 78 78 77 76 75 75 73 71 71 68 69 59 60 63 67
75 77 80 79 75 79 80 84 86 84 84 83 85 86 85 82 82 80 78 76 76 75 74 73 72 69 67 68 68 66 59 58 69
76 77 79 80 75 74 80 81 85 84 83 86 86 85 82 80 80 78 76 75 74 73 72 71 70 68 67 67 67 62 57 57 61
69 69 72 73 74 73 71 73 85 84 85 85 81 80 79 78 77 76 75 73 72 70 70 69 67 67 65 64 65 63 57 56 56
62 63 65 67 69 70 72 73 76 83 81 82 81 77 75 75 73 72 72 71 71 69 68 67 67 66 65 65 65 62 59 57 56
60 62 63 63 62 62 62 73 74 76 79 78 76 73 73 72 70 70 65 58 64 67 64 67 67 66 66 65 64 63 58 57 59
60 62 62 61 60 60 62 61 67 75 75 75 72 71 70 69 65 62 61 59 55 48 47 48 52 55 63 56 56 50 48 47 47
60 62 62 62 63 63 62 65 63 70 73 72 72 71 69 66 64 64 64 62 59 55 49 46 45 47 50 53 52 48 46 45 46

GFSFLT1_sfc_temp_015.txt.gz
Temp
84 83 84 84 84 83 84 83 80 79 77 76 77 76 77 77 78 77 77 74 75 74 74 74 75 75 74 71 70 69 67 65 65
83 83 85 85 85 85 84 83 81 79 78 78 78 77 77 77 77 77 76 72 75 75 75 76 74 75 74 72 71 69 67 65 65
81 82 84 86 86 86 86 86 84 81 80 79 80 79 79 78 77 77 77 74 74 75 75 75 74 74 74 72 70 69 67 65 65
81 81 84 86 87 87 87 86 84 81 80 80 80 80 80 79 78 78 77 75 75 75 75 75 75 75 74 72 71 70 68 67 65
80 84 85 87 88 88 86 85 84 81 81 80 81 81 80 79 79 78 77 76 76 76 75 74 75 74 74 72 72 71 69 68 69
77 78 83 85 88 84 85 84 83 81 81 81 82 81 80 79 78 77 77 77 78 75 76 74 75 74 73 72 71 71 71 70 69
75 77 81 81 79 82 83 84 83 81 81 82 82 81 80 78 78 77 78 79 78 78 76 74 74 74 74 73 72 71 70 69 68
74 76 78 82 82 83 82 82 83 81 81 81 82 80 79 79 79 79 78 78 78 78 75 75 75 74 74 74 73 72 70 69 68
76 77 78 80 88 88 84 84 82 82 81 81 82 80 79 80 79 78 77 77 76 76 75 75 73 73 73 71 73 69 68 70 68
75 78 77 80 80 83 84 84 84 82 81 82 80 80 80 79 79 77 77 77 76 75 74 74 71 72 72 71 71 67 66 67 68
74 76 76 76 81 84 85 85 85 85 83 81 79 79 79 79 78 78 77 76 76 75 75 74 71 72 72 71 71 63 63 66 68
75 76 76 77 81 83 84 85 85 84 82 81 79 78 79 79 79 78 77 76 76 77 76 73 72 72 71 71 71 61 61 64 68
76 76 73 75 75 76 77 82 85 83 81 80 78 80 80 80 80 78 77 77 77 77 76 74 73 73 72 70 71 59 59 63 68
72 72 74 73 73 72 78 78 80 80 80 80 82 82 82 81 80 79 79 76 76 75 75 75 74 73 73 72 69 60 57 60 67
65 65 67 69 69 67 66 71 74 80 80 83 83 83 81 79 80 79 77 75 75 75 75 75 74 72 68 69 66 60 57 57 61
62 62 63 65 64 63 64 69 67 72 80 82 83 82 81 80 79 78 76 74 74 75 75 74 72 69 67 66 66 65 56 55 56
61 62 63 63 65 63 62 62 66 67 70 75 76 80 80 79 78 77 76 75 76 74 73 72 69 68 66 65 65 63 58 56 58
59 59 60 60 60 60 61 62 63 65 64 66 73 73 71 71 73 74 71 62 69 72 69 68 68 67 67 65 64 64 58 56 58
58 59 60 60 60 60 60 61 65 64 65 67 68 71 72 72 72 64 62 60 58 50 54 55 54 55 62 62 56 49 49 48 48
58 60 61 62 62 63 62 64 67 65 63 65 63 69 72 68 64 64 65 67 65 60 56 49 45 49 52 54 53 47 45 45 45

GFSFLT1_sfc_temp_018.txt.gz
Temp
81 81 81 81 81 80 80 80 78 77 76 74 76 75 75 76 76 76 76 75 75 75 75 76 75 75 75 74 73 72 71 70 69
78 81 81 81 83 83 81 80 79 77 76 75 76 76 76 75 76 76 76 76 75 76 75 76 75 75 74 74 73 72 70 70 69
79 81 82 83 83 83 83 83 81 80 78 76 77 77 77 77 76 76 77 76 74 74 75 76 75 75 75 74 73 72 70 69 69
78 80 81 83 84 85 85 85 83 80 79 78 77 77 77 77 77 77 77 76 75 75 75 75 75 75 74 73 72 71 70 69 69
76 77 79 82 84 85 84 83 84 82 80 80 79 78 77 77 77 77 76 75 76 75 74 75 75 75 74 74 73 72 71 70 71
72 73 74 77 81 82 83 83 82 83 81 81 81 80 78 77 77 77 76 76 77 75 75 74 75 75 74 73 73 72 72 71 71
73 72 72 72 76 81 82 82 81 80 81 82 81 81 79 77 77 77 77 77 76 75 75 74 74 74 74 74 74 73 72 71 70
71 73 72 71 74 77 77 79 80 80 80 80 81 79 79 78 78 78 77 76 76 76 75 75 75 74 74 74 74 74 71 71 70
70 72 74 73 74 75 75 78 78 80 79 79 80 78 78 78 77 76 76 76 76 75 74 75 74 74 74 73 75 70 67 71 70
70 71 73 73 74 76 79 80 80 80 80 80 78 77 77 77 77 76 76 76 75 74 74 74 73 74 74 73 74 66 66 68 71
73 72 72 73 77 78 77 81 83 81 79 77 76 76 76 77 76 76 76 75 75 75 75 74 73 74 73 73 73 64 63 66 72
74 74 72 74 75 75 76 77 81 79 78 77 76 76 76 76 77 76 76 75 75 76 75 74 73 73 72 72 72 62 61 65 71
71 71 71 72 73 73 73 74 76 77 77 76 75 77 77 78 77 77 76 76 76 76 76 74 75 73 73 71 73 59 59 65 70
65 67 68 67 67 67 69 73 75 73 74 75 78 79 79 78 78 77 77 76 77 76 75 75 74 73 73 73 72 66 57 60 69
63 64 67 69 67 67 68 69 72 72 72 75 78 77 77 77 77 79 79 76 75 75 76 75 73 73 73 73 72 61 56 58 63
62 63 63 65 65 64 65 68 69 68 68 71 75 75 74 76 77 78 77 75 75 75 76 75 72 71 72 70 66 63 56 56 59
61 62 62 64 63 62 62 64 66 66 69 71 72 71 72 74 75 76 77 77 77 77 74 74 73 72 70 68 66 64 63 63 61
59 60 60 61 60 60 61 64 65 67 67 67 69 71 70 71 74 73 75 74 74 75 76 74 73 72 69 67 65 64 58 59 62
60 61 62 63 63 64 63 64 64 64 64 64 65 68 69 69 71 72 73 65 60 51 57 53 53 55 63 64 56 52 53 51 49
60 62 63 63 63 64 65 65 64 62 63 64 63 63 69 72 69 68 65 66 65 60 56 49 51 52 54 56 57 53 47 45 47

GFSFLT1_sfc_temp_021.txt.gz
Temp
89 87 88 87 88 86 85 85 84 84 82 80 81 81 80 81 81 84 84 84 86 85 86 86 86 84 84 84 83 83 82 82 82
88 89 88 88 89 89 86 86 84 83 82 81 82 82 81 81 81 81 83 83 83 86 85 88 85 85 84 84 83 82 81 83 79
89 90 90 90 90 90 89 88 88 86 84 82 82 83 83 83 82 82 83 83 82 84 85 84 85 84 84 84 83 82 80 82 80
90 90 90 91 91 91 91 90 89 88 85 83 83 83 83 82 83 83 83 83 83 83 84 83 83 83 83 83 83 82 80 81 81
90 90 90 91 93 92 91 90 89 89 87 86 85 84 82 82 83 83 83 82 83 83 82 83 84 84 83 83 83 82 80 80 81
86 86 86 88 92 91 90 90 89 90 88 89 89 85 84 83 83 83 82 82 83 83 83 82 84 84 83 83 83 81 81 81 81
88 86 87 87 87 88 89 89 87 87 89 90 89 87 85 82 82 83 83 83 82 83 83 82 83 83 83 83 83 82 82 81 81
84 84 87 86 85 84 84 86 86 86 88 88 89 85 84 83 83 83 83 82 82 83 82 82 83 82 83 83 84 85 82 81 81
86 85 86 88 88 86 84 85 85 86 86 87 86 84 83 83 82 82 81 81 81 81 81 82 82 82 82 82 85 75 70 78 81
85 88 89 89 88 88 86 86 86 85 85 87 84 81 83 83 82 81 81 81 81 80 80 81 80 81 82 81 82 68 67 69 83
86 87 88 88 91 90 87 90 92 89 88 83 82 82 82 83 81 81 81 80 80 80 81 80 81 81 81 81 82 66 65 68 79
85 88 89 88 90 90 86 87 88 87 86 84 83 82 81 82 82 81 81 80 79 81 81 81 81 82 80 80 81 64 63 67 79
87 88 88 86 87 87 86 85 89 86 85 84 82 83 83 83 83 82 81 81 80 81 81 81 83 82 81 76 81 63 60 66 83
81 82 83 84 84 84 83 84 86 83 85 83 85 86 85 83 83 81 82 81 81 81 81 81 80 80 81 81 79 79 59 59 80
78 78 79 81 80 80 81 82 84 82 81 84 84 84 84 82 82 84 84 81 81 81 80 78 78 78 79 80 81 66 57 57 66
76 76 76 79 79 76 77 80 82 79 79 82 83 82 82 82 82 83 83 81 80 81 79 78 77 75 75 73 74 75 56 57 60
74 75 75 77 77 76 74 76 77 77 77 79 81 81 81 82 81 81 83 84 84 83 81 77 80 76 74 73 72 69 63 63 64
71 71 72 74 74 74 72 74 74 75 75 76 78 79 80 81 83 81 83 83 85 84 84 82 82 81 77 73 67 65 60 62 64
65 66 69 70 71 71 70 72 71 72 72 73 74 75 79 81 83 84 84 84 77 54 53 56 57 57 68 68 59 51 51 52 52
62 66 66 65 66 68 70 72 71 72 72 74 73 73 73 76 73 80 81 79 74 71 62 48 51 52 53 53 54 52 51 51 51

GFSFLT1_sfc_temp_024.txt.gz
Temp
100 97 98 97 96 94 93 92 92 91 89 85 86 86 85 86 86 89 90 90 92 92 94 94 92 90 89 89 89 89 88 88 88
100 98 98 97 98 97 94 93 92 91 89 87 87 87 87 86 86 87 89 89 90 93 92 95 92 91 88 89 89 88 87 89 86
100 101 98 99 99 99 98 97 95 92 91 88 89 89 88 88 88 87 88 90 88 90 92 91 92 89 89 89 89 88 86 88 87
101 101 101 101 101 101 101 100 97 95 92 90 90 90 89 89 89 89 88 89 89 89 90 90 89 89 88 89 88 88 86 87 89
101 102 103 103 104 103 101 99 99 98 95 93 92 92 89 89 89 89 89 88 89 89 88 90 89 89 88 88 89 88 86 85 88
97 98 98 100 103 102 101 100 97 98 98 98 97 93 91 90 89 89 89 88 88 89 88 88 90 89 88 88 88 88 87 87 87
96 96 96 98 99 100 101 100 97 96 98 100 98 97 93 90 89 89 90 89 88 89 88 88 88 89 89 89 89 89 89 87 87
94 94 95 96 96 97 96 97 96 95 96 98 98 95 94 91 90 90 89 88 88 88 88 88 88 88 89 89 90 92 89 88 87
91 93 95 98 99 96 96 96 94 95 95 96 95 94 92 92 89 88 87 87 87 87 87 87 87 87 88 88 92 80 74 83 89
91 93 95 96 99 100 99 101 97 95 94 95 93 91 91 90 88 87 86 87 86 85 85 87 86 87 87 87 88 73 71 73 89
93 95 96 97 102 103 103 104 107 100 98 92 91 89 89 89 86 87 87 86 85 85 86 85 85 86 86 87 88 70 67 71 85
95 96 98 100 103 102 101 100 101 99 96 92 90 89 87 88 88 86 86 85 85 86 86 86 86 86 85 85 86 67 64 69 85
99 100 99 98 100 100 99 96 99 96 95 93 89 90 89 89 88 87 86 86 85 86 86 86 88 87 87 81 86 68 62 69 88
91 94 95 96 95 94 95 96 96 93 94 92 92 92 91 89 89 87 87 86 86 85 85 87 85 86 87 87 84 85 59 61 85
86 90 93 92 90 91 93 92 92 90 89 93 92 91 90 89 88 89 90 86 86 85 85 83 84 84 86 89 87 71 59 59 67
87 88 89 92 92 89 88 89 90 88 88 90 89 88 87 87 87 87 88 86 84 85 84 86 85 87 86 89 92 89 63 57 60
84 84 85 88 87 84 82 85 88 87 86 87 87 86 86 87 86 85 87 90 89 88 89 86 87 88 88 89 89 90 87 71 67
82 81 82 83 83 82 80 81 81 82 83 85 86 86 87 87 89 87 87 87 91 91 91 89 90 89 91 87 87 82 70 65 66
72 73 75 75 75 76 78 79 79 80 80 81 82 84 87 90 92 93 92 91 89 55 59 53 51 51 72 90 72 55 52 52 53
65 70 70 71 71 75 77 72 71 73 80 80 80 81 81 87 80 90 89 89 89 88 75 52 52 49 49 53 57 50 50 49 50

GFSFLT1_sfc_temp_027.txt.gz
Temp
104 103 104 102 99 98 97 96 95 94 90 86 87 88 86 86 88 91 91 91 94 94 95 96 95 90 91 90 90 89 90 90 89
103 103 103 101 101 100 98 97 95 93 91 88 88 89 88 87 87 88 91 90 90 95 92 97 96 93 90 91 90 90 89 90 88
102 105 103 103 103 101 101 100 99 96 94 90 89 90 89 89 89 88 89 91 90 90 93 93 95 92 92 90 90 90 88 90 89
102 104 104 104 103 104 103 102 100 98 96 93 91 90 90 89 90 90 89 90 91 90 92 92 91 91 90 90 89 89 88 88 90
103 105 105 105 105 105 104 102 101 100 98 96 94 92 90 90 90 90 90 89 90 90 90 91 91 91 90 90 90 89 88 87 90
102 104 104 106 106 105 105 104 102 102 101 99 99 94 93 92 91 91 90 89 90 90 89 90 92 90 89 89 89 89 89 88 88
101 102 101 104 106 106 106 104 102 102 103 103 101 99 96 92 91 91 92 91 89 90 90 89 89 90 90 89 90 90 90 88 88
96 97 99 100 101 102 103 103 102 100 102 103 103 99 98 94 92 92 91 90 90 90 90 89 89 89 90 90 91 93 89 89 88
94 95 98 100 101 100 100 101 101 101 99 100 101 98 97 95 92 90 90 89 89 89 88 88 88 88 88 89 93 81 75 84 89
94 95 98 99 100 103 102 102 101 100 99 99 97 95 96 93 92 90 89 90 89 87 87 88 87 88 88 88 89 74 72 73 90
94 96 98 100 104 104 105 108 110 104 103 96 95 94 93 93 91 90 89 88 87 87 88 87 87 87 88 87 89 73 68 72 87
96 97 100 102 105 106 105 106 107 106 102 99 95 93 92 92 92 90 89 87 86 88 87 87 87 88 87 86 87 69 66 69 87
95 99 101 101 104 105 105 104 106 104 102 100 94 93 93 92 92 90 89 88 87 88 88 88 90 88 88 82 87 70 64 68 90
90 91 93 97 98 97 98 100 102 98 100 99 99 97 95 92 91 89 89 88 88 87 87 88 86 87 88 88 86 85 62 61 86
88 90 93 96 95 96 96 97 98 95 93 98 98 96 93 91 90 91 92 87 87 87 86 85 85 85 87 91 88 72 65 59 66
87 90 91 95 95 95 95 94 93 91 93 95 95 93 91 91 90 90 90 88 86 88 86 87 87 88 88 89 93 91 64 58 60
88 89 88 91 91 91 88 89 92 92 91 92 91 90 89 90 89 88 89 91 91 90 90 89 88 90 90 91 93 94 95 80 70
85 85 85 87 87 86 84 84 84 86 86 88 89 88 89 88 90 88 89 89 92 93 92 89 93 92 93 93 93 94 82 84 89
78 76 76 77 80 82 82 82 80 82 84 85 87 87 90 92 95 93 91 92 90 69 65 58 54 50 65 87 67 56 53 51 55
69 72 73 76 80 75 75 73 76 82 83 84 83 84 85 91 83 94 94 94 93 92 76 55 54 50 48 48 47 47 49 47 50

GFSFLT1_sfc_temp_030.txt.gz
Temp
102 102 102 99 95 94 92 92 90 88 85 82 83 84 82 82 83 85 85 86 88 87 88 87 86 85 85 85 84 84 84 83 83
101 101 102 99 98 96 93 92 90 88 85 83 84 84 83 82 82 84 84 84 86 88 86 91 88 85 85 84 85 84 83 84 82
101 102 101 101 99 97 95 95 93 91 88 84 84 85 85 85 83 84 85 85 84 85 87 86 89 85 85 85 85 85 83 83 83
101 101 101 102 101 100 97 97 95 93 90 87 86 85 85 85 85 84 84 85 85 86 86 87 86 86 85 84 84 84 83 82 83
102 102 101 103 102 101 99 96 96 94 93 91 88 87 85 85 85 85 85 84 85 86 86 86 86 86 85 85 84 84 83 82 84
98 100 101 102 103 101 99 98 96 96 94 94 93 88 88 87 86 85 85 84 85 86 85 86 87 87 85 84 85 83 84 83 83
99 98 98 100 101 99 100 98 95 95 96 97 95 93 90 86 86 86 86 86 85 85 86 84 86 86 85 86 85 85 85 84 83
97 97 99 99 100 95 95 95 94 95 97 95 97 92 90 88 87 87 86 85 85 85 85 86 85 85 86 85 86 88 84 84 83
92 93 97 99 100 100 99 97 95 95 95 97 96 91 91 89 87 86 86 85 85 85 85 85 85 84 85 85 88 79 75 82 84
93 94 96 97 99 99 98 99 97 95 94 96 94 91 91 90 87 86 85 86 85 84 84 85 84 84 85 84 85 74 72 74 86
94 95 96 97 100 98 97 103 104 99 98 92 91 90 89 90 88 86 86 85 85 84 85 84 84 84 84 84 85 72 68 71 83
95 96 96 97 101 100 96 98 98 96 95 92 91 90 88 89 89 87 86 85 84 85 85 84 85 85 84 83 84 68 66 68 82
90 91 92 92 94 96 100 101 102 99 95 93 89 90 89 90 88 87 86 86 84 85 85 85 86 85 85 80 84 70 63 67 84
87 89 91 93 92 90 93 93 94 91 95 92 93 92 92 89 88 87 86 86 85 85 85 85 84 84 85 85 83 83 62 60 82
84 86 90 93 92 91 94 95 92 88 89 93 94 92 89 88 88 89 90 85 85 85 84 82 82 82 83 86 85 70 66 59 62
83 88 90 91 90 90 93 93 91 88 88 92 93 92 88 88 88 87 86 85 84 84 83 83 82 83 83 84 86 87 64 59 59
79 85 85 86 86 88 86 87 88 89 90 92 92 91 88 88 87 85 86 88 87 86 85 84 83 84 84 85 86 87 88 79 68
77 79 79 81 83 86 83 83 83 85 85 86 88 89 88 87 88 85 86 86 87 86 86 84 87 86 86 85 85 72 57 61 75
75 76 78 78 80 83 79 79 79 82 84 85 85 86 87 88 89 88 87 86 85 69 63 56 49 50 63 74 55 48 46 47 50
70 73 76 76 77 74 76 77 80 82 83 84 83 84 86 86 83 88 86 86 86 83 64 52 51 48 47 47 45 45 44 43 44

GFSFLT1_sfc_temp_033.txt.gz
Temp
82 79 82 87 87 87 87 86 84 82 80 80 80 80 80 81 77 79 81 76 78 76 80 80 81 80 80 78 78 77 76 76 75
87 87 90 88 88 88 88 86 85 83 80 80 80 80 80 80 80 77 81 81 77 80 78 82 81 82 79 79 79 78 76 78 75
90 89 88 90 89 89 88 89 87 85 82 80 80 81 81 80 81 81 80 80 80 78 81 79 81 81 81 80 80 79 78 76 76
94 92 91 90 89 90 89 90 87 85 83 81 80 80 81 81 80 81 81 80 79 78 78 79 77 80 80 80 80 79 78 76 75
88 93 92 91 90 90 89 89 88 86 84 82 81 82 81 81 81 80 81 80 79 82 77 80 79 80 80 80 80 80 78 77 80
84 87 91 92 91 90 89 89 89 87 87 84 83 82 81 81 81 81 79 81 82 77 81 80 82 78 80 80 80 79 80 79 79
84 84 90 92 92 91 90 90 89 88 88 88 85 84 82 81 81 81 82 81 81 82 81 81 81 81 80 81 81 81 81 80 79
84 83 87 91 91 91 90 89 89 89 89 89 89 85 84 82 83 83 83 82 82 81 82 82 82 81 82 81 82 83 81 81 80
79 80 82 86 90 91 91 91 89 90 89 89 90 87 84 85 83 83 82 82 82 81 81 82 82 81 82 81 83 76 73 79 81
81 82 83 83 84 83 83 89 91 89 90 91 90 88 87 85 84 82 82 82 82 81 81 82 81 82 81 82 82 71 70 72 83
81 82 81 81 82 84 83 83 91 92 91 88 88 87 86 86 84 82 82 82 82 82 83 82 82 81 82 81 82 70 68 69 81
75 76 77 78 79 79 80 82 83 88 86 87 85 87 85 85 84 83 82 82 82 83 83 83 83 82 82 81 82 66 65 67 78
78 78 79 80 81 80 80 80 81 81 84 88 86 85 83 84 86 84 83 83 83 84 84 83 84 83 83 78 82 68 62 66 80
76 77 78 80 79 78 78 80 79 78 79 78 84 83 80 80 82 83 83 83 84 84 83 83 82 82 83 83 81 80 61 60 78
74 76 79 80 76 76 78 81 80 76 77 80 83 82 80 79 78 83 81 79 81 82 82 81 80 80 80 82 82 67 62 59 61
71 74 74 77 77 77 76 77 77 75 75 78 80 80 77 77 78 79 79 79 77 79 80 80 78 77 77 76 78 79 62 59 59
69 71 73 75 74 75 73 75 76 74 75 77 77 79 78 77 77 76 77 77 79 79 77 77 76 75 75 76 76 77 73 70 65
67 68 70 71 71 73 72 72 72 74 75 76 75 77 77 77 77 77 77 77 76 77 75 74 77 77 76 75 68 64 54 56 67
64 65 67 68 69 70 70 71 72 73 74 75 74 75 77 76 76 76 77 77 69 54 55 55 52 53 61 60 55 48 46 45 46
64 65 66 67 68 69 70 70 70 73 74 73 73 73 74 74 74 76 75 75 73 63 57 49 48 50 52 52 48 45 43 43 46

GFSFLT1_sfc_temp_036.txt.gz
Temp
81 81 81 84 85 86 85 82 81 81 79 78 78 79 78 79 79 79 79 74 74 76 77 77 78 78 77 77 76 75 73 73 73
80 81 81 85 86 86 86 82 81 80 79 80 79 79 79 78 77 79 78 77 75 74 75 79 78 79 78 77 77 75 74 73 73
80 81 84 85 86 86 87 85 83 82 81 81 80 80 81 80 78 78 80 78 74 74 75 77 79 78 79 77 77 77 74 74 73
82 82 84 84 86 87 88 87 84 82 81 81 80 80 80 80 79 79 77 78 77 77 75 76 77 78 78 78 77 77 75 74 75
82 84 84 86 87 87 87 86 85 82 81 81 81 80 80 79 79 79 79 77 77 78 77 76 77 76 78 78 78 78 77 75 77
84 84 86 88 87 86 86 87 85 83 82 81 81 81 80 79 79 78 78 78 79 78 77 77 75 77 77 77 78 78 78 77 77
81 88 87 87 86 86 86 87 86 84 83 82 81 80 79 78 78 78 78 79 79 79 77 77 77 76 77 77 78 79 79 78 77
80 85 86 87 86 86 86 85 86 84 84 83 82 80 79 78 79 80 79 78 78 79 79 77 79 79 77 78 79 80 79 79 78
79 84 86 87 87 87 86 86 86 85 84 84 82 80 79 80 79 79 79 79 78 78 78 78 78 78 78 77 80 74 72 78 79
74 80 86 87 87 88 87 87 88 85 85 86 83 81 81 80 80 79 79 79 79 78 77 78 78 79 79 79 80 70 69 71 81
75 77 77 76 80 83 83 86 88 88 86 85 84 82 81 81 80 79 79 79 79 79 79 78 78 78 79 79 80 68 66 69 79
70 72 73 74 77 76 77 86 88 88 86 85 84 83 82 82 81 80 79 79 79 80 80 80 80 80 79 79 80 65 64 66 76
71 73 73 74 76 76 77 74 77 87 86 85 84 84 84 84 82 81 80 80 80 81 81 81 81 81 81 76 79 65 63 66 79
71 72 72 73 74 72 73 75 75 75 78 84 87 86 86 83 83 82 83 82 82 82 81 81 81 80 81 81 77 77 61 60 77
68 69 71 73 73 73 74 73 74 72 73 75 78 77 76 79 82 84 83 81 81 81 81 80 79 79 79 80 80 66 61 59 62
67 68 69 71 71 71 73 73 73 71 71 73 75 75 75 76 76 78 77 78 78 78 79 79 78 77 76 76 76 77 61 59 59
65 66 66 68 69 69 69 70 72 71 72 73 73 73 75 73 73 73 74 78 78 79 77 76 76 75 75 76 76 76 70 68 65
63 64 64 65 65 66 68 68 70 70 72 72 71 72 74 74 73 73 73 66 65 74 76 75 76 76 76 75 72 66 57 59 68
61 62 63 64 64 66 67 68 68 69 71 70 70 70 72 73 73 74 74 66 61 53 50 49 50 52 61 58 53 49 48 46 46
60 61 63 62 63 65 66 66 67 68 70 69 69 68 69 72 71 73 73 66 65 64 60 50 47 47 49 51 49 46 44 47 47

GFSFLT1_sfc_temp_042.txt.gz
Temp
77 76 77 77 79 78 78 78 78 76 75 74 74 74 73 74 75 74 75 73 72 73 73 74 76 75 76 76 76 76 75 75 75
76 77 78 78 80 80 80 79 78 76 75 75 75 75 75 74 75 74 74 73 74 73 73 76 76 76 76 76 76 76 75 75 75
76 78 78 79 80 81 81 82 81 78 78 76 76 76 76 76 75 75 75 74 73 72 73 75 75 75 76 76 76 76 75 75 75
77 78 78 79 81 83 82 83 82 79 78 76 77 76 76 76 76 76 76 75 74 73 73 75 75 75 75 76 76 76 75 75 75
76 79 80 81 82 83 82 81 81 79 79 77 78 77 76 76 76 76 76 75 74 74 73 75 75 75 75 75 76 76 75 75 77
75 77 79 81 82 82 83 82 80 79 79 79 80 77 77 77 76 76 75 76 75 74 75 74 76 76 75 75 76 75 76 76 76
71 72 75 78 80 81 83 82 79 79 79 80 80 79 78 76 77 76 77 76 76 74 75 75 75 75 75 76 76 76 76 76 76
71 71 74 76 79 79 80 80 79 78 79 79 80 78 77 77 77 77 76 76 76 75 75 75 75 75 76 76 77 79 76 77 76
64 70 76 77 79 80 79 80 80 78 78 79 79 77 77 77 76 76 75 75 75 75 75 75 75 75 75 75 79 72 70 75 77
63 66 72 79 79 81 81 82 82 79 78 79 78 77 77 77 76 75 75 75 74 74 75 75 75 75 75 75 76 68 68 70 79
64 64 72 79 82 82 82 85 85 81 80 77 77 76 76 76 75 75 75 75 74 74 75 74 74 75 75 75 76 67 65 68 76
67 68 66 75 81 82 81 83 82 79 78 77 77 76 76 76 76 75 75 74 74 75 75 74 74 75 75 75 76 64 64 66 75
67 70 68 73 75 77 78 79 82 78 78 76 75 77 77 77 77 76 75 75 75 76 76 76 77 76 76 72 75 64 62 64 77
67 69 69 70 73 75 75 78 80 77 77 76 78 78 78 77 77 76 77 76 77 76 76 77 76 76 77 77 75 75 61 59 75
65 66 68 70 69 69 71 75 78 75 74 75 75 76 77 76 77 79 79 76 76 77 76 75 75 75 76 78 78 65 62 59 60
63 64 65 68 69 69 70 71 74 73 71 74 74 74 74 74 76 77 78 77 76 76 76 76 75 76 76 76 77 77 61 58 58
61 62 63 65 67 67 67 69 70 70 72 73 73 73 73 73 74 74 77 78 79 78 77 76 77 75 74 75 75 76 77 70 66
59 61 62 64 63 65 65 67 68 70 71 72 72 73 74 73 73 72 70 62 63 74 74 73 77 76 76 75 75 76 69 70 73
57 57 60 62 64 64 65 66 67 68 69 70 71 71 72 72 72 71 66 64 61 48 47 46 51 57 66 62 52 47 48 48 49
57 59 60 59 62 64 65 66 66 67 68 68 69 69 70 70 70 69 65 65 64 61 54 47 45 44 46 50 47 44 43 44 45

GFSFLT1_sfc_temp_045.txt.gz
Temp
83 82 84 83 83 83 83 83 83 82 80 79 80 80 80 80 81 84 84 83 86 85 87 87 87 85 85 85 85 85 84 85 85
83 82 83 83 84 85 84 83 83 82 81 80 80 81 81 80 81 82 83 83 83 86 84 87 86 86 85 85 85 84 84 85 84
84 85 84 85 85 86 86 86 86 85 83 80 81 82 82 82 82 82 83 83 82 83 84 84 86 85 85 85 85 84 83 85 85
87 86 86 86 87 88 87 88 87 86 84 82 82 82 82 82 82 83 83 82 82 83 84 83 84 84 85 84 84 84 83 83 85
89 87 87 88 88 87 88 87 88 86 86 85 84 83 82 82 82 83 82 82 83 83 82 84 84 84 84 84 85 85 83 83 85
85 86 87 87 89 87 88 88 87 88 87 87 87 85 83 83 83 82 82 82 83 83 83 83 85 84 83 83 84 84 84 83 84
83 83 84 86 86 86 87 87 85 86 87 88 88 87 85 83 83 83 83 83 82 82 83 83 83 83 84 85 85 85 85 84 84
81 82 84 84 85 84 84 85 84 85 87 86 87 84 85 83 83 83 83 82 82 82 83 83 83 83 84 84 86 88 85 85 84
77 79 82 84 85 85 85 85 83 83 84 85 85 83 83 83 82 82 81 82 81 81 82 82 83 83 83 83 87 76 72 80 85
72 73 76 78 83 86 86 87 85 83 83 85 83 82 83 82 81 81 81 82 81 81 81 82 81 82 83 83 84 70 68 70 85
69 72 74 77 80 86 87 90 91 87 86 82 82 81 81 82 81 81 81 81 80 80 82 81 81 82 82 82 84 67 66 68 81
66 69 72 76 80 85 88 88 88 85 84 83 82 81 81 82 82 81 81 80 80 81 81 81 81 82 82 81 82 65 64 67 82
67 71 77 78 82 89 89 87 89 85 83 83 81 82 82 83 82 81 81 81 80 82 82 81 84 82 82 77 82 66 62 66 83
66 68 74 81 87 86 86 87 87 83 83 82 84 85 84 83 83 82 82 81 82 81 81 83 81 82 82 82 80 80 60 59 80
63 66 71 79 81 83 85 85 84 82 81 84 84 84 83 82 82 84 84 81 81 81 81 80 80 80 82 85 83 67 63 59 61
62 64 69 74 78 77 81 83 83 81 79 82 82 82 82 82 82 83 83 81 80 81 81 83 82 83 83 85 87 85 61 58 58
62 62 65 72 74 74 74 77 79 78 81 82 81 81 81 82 81 81 83 84 84 84 84 83 84 84 84 86 86 86 87 79 71
61 61 63 67 69 71 72 75 75 77 79 82 82 81 81 81 83 81 82 84 81 85 85 82 86 86 86 85 84 85 75 76 82
63 62 62 65 67 69 71 73 73 74 74 77 80 82 83 84 85 82 84 76 69 48 49 47 51 56 74 76 57 52 51 51 55
63 65 65 64 65 67 71 72 71 71 73 74 76 76 72 74 72 77 79 78 77 70 55 47 44 44 49 53 52 45 45 45 46

GFSFLT1_sfc_temp_048.txt.gz
Temp
96 94 95 92 91 90 89 89 89 88 86 83 85 85 84 85 85 90 90 89 92 92 94 95 93 90 90 90 90 90 89 88 89
95 94 94 93 93 92 91 89 89 88 87 85 86 87 86 85 86 86 90 90 89 93 91 95 93 92 90 90 90 90 89 91 89
95 95 94 95 94 93 93 93 92 90 89 86 87 88 87 88 87 87 88 89 88 89 92 90 92 90 90 90 90 89 88 90 89
96 96 95 95 95 96 95 95 93 91 90 88 87 88 88 88 88 89 88 88 88 88 89 90 88 89 89 90 90 89 88 88 90
98 98 97 97 97 96 96 94 94 93 92 91 90 90 88 88 89 89 89 87 88 88 87 89 89 89 88 89 90 90 88 88 90
95 97 98 97 98 97 96 95 94 95 94 94 94 91 90 89 89 89 89 88 88 88 87 87 90 89 88 88 90 89 89 89 89
95 96 95 97 97 97 96 95 94 94 95 97 96 94 92 89 89 89 89 89 88 88 88 87 88 89 89 89 90 90 90 90 89
89 91 93 94 95 95 93 93 94 93 95 96 97 94 92 91 89 90 89 88 88 88 88 88 88 88 89 89 91 94 90 90 90
88 89 91 93 94 95 93 92 92 92 93 94 94 92 92 91 88 88 88 87 87 87 87 87 87 88 88 88 93 79 74 83 90
86 86 87 89 91 94 95 94 93 92 92 94 91 90 90 89 87 86 86 87 86 86 86 87 86 87 88 88 89 73 70 72 90
79 80 82 85 90 92 94 99 99 94 94 90 89 88 88 88 87 86 86 86 86 86 87 86 86 86 87 88 89 70 67 69 87
75 77 79 82 86 89 91 94 97 95 92 90 89 88 87 88 88 86 86 85 85 86 86 86 87 87 87 86 87 67 65 69 86
74 76 79 80 85 89 90 90 97 96 91 89 87 88 88 88 88 87 86 86 85 86 87 87 90 88 88 82 87 68 62 69 89
70 70 73 82 86 86 89 91 96 93 91 89 90 90 89 88 88 87 87 86 86 86 86 88 86 88 89 88 86 85 61 60 85
63 64 73 87 89 90 93 93 94 90 87 89 89 90 89 88 87 89 89 86 86 86 86 84 85 85 87 91 89 69 62 59 62
62 63 67 79 88 89 91 91 92 87 87 86 88 88 87 87 87 87 89 86 85 86 85 88 86 88 89 91 94 91 63 58 58
61 61 63 68 74 76 82 88 89 88 88 87 87 86 86 87 86 85 88 89 89 89 90 88 91 91 91 93 94 95 95 84 75
60 59 62 63 66 70 72 75 77 80 86 86 86 86 87 87 89 86 87 89 84 91 93 86 92 94 95 94 93 94 82 83 92
61 60 60 61 63 67 71 73 75 78 81 83 84 84 87 90 92 90 89 86 84 50 50 47 48 51 73 86 62 55 57 57 58
62 62 61 62 62 64 68 69 70 73 79 82 82 76 84 90 87 87 81 76 76 77 72 48 46 44 48 55 55 47 46 46 47

GFSFLT1_sfc_temp_051.txt.gz
Temp
99 98 98 96 95 93 92 93 93 92 88 85 86 86 85 85 87 91 91 91 94 94 96 97 92 91 91 91 91 90 90 90 90
92 98 99 97 96 96 94 93 92 91 89 86 87 87 86 85 86 87 90 89 90 94 93 98 95 93 90 91 91 91 90 91 88
95 98 99 100 98 97 96 96 95 94 92 88 88 89 88 88 87 87 89 90 90 90 94 93 94 93 92 91 91 91 90 91 91
98 100 100 101 100 99 98 98 96 94 93 91 89 89 89 88 89 89 89 90 91 90 92 93 91 91 91 90 90 90 89 89 92
100 100 102 102 102 100 99 97 97 96 94 93 91 91 89 89 89 89 90 89 90 91 89 91 91 90 90 90 91 91 89 88 91
97 99 101 102 102 100 99 98 97 97 96 96 95 91 91 91 90 90 90 89 90 90 89 89 91 90 89 89 90 90 90 90 89
97 98 100 101 101 100 99 99 97 96 97 98 97 95 93 90 90 91 91 91 89 90 89 89 89 90 90 90 90 91 91 91 90
94 96 98 100 101 100 98 98 97 96 98 98 98 95 95 92 90 90 90 89 89 89 89 89 89 89 90 91 91 94 90 91 91
92 93 95 98 99 100 99 98 97 96 96 98 97 94 93 92 89 89 89 88 88 88 89 89 89 89 89 89 93 80 75 85 91
91 94 94 95 97 99 100 101 98 98 95 97 95 94 93 92 89 88 88 88 88 87 87 88 87 88 89 89 90 73 71 74 92
87 90 91 92 96 98 100 104 104 100 99 93 94 92 92 91 90 88 88 88 87 86 88 87 87 88 88 89 90 72 67 71 88
84 85 87 89 92 94 96 99 102 100 98 95 93 92 91 91 91 89 88 87 87 88 88 88 88 89 88 87 88 69 66 70 88
84 85 86 86 89 91 93 93 99 100 97 95 91 93 92 91 91 89 87 87 87 88 88 89 92 90 90 83 88 68 64 70 91
77 80 80 83 85 86 88 92 95 94 97 94 95 94 94 91 90 89 88 87 88 88 88 89 87 89 90 89 87 87 62 60 87
71 72 75 79 84 90 91 92 93 91 91 94 94 92 91 90 89 92 92 87 87 87 87 86 86 86 89 92 90 72 62 60 64
67 65 70 73 80 90 94 93 92 90 89 93 91 90 88 89 89 89 90 87 86 87 87 89 87 89 89 92 96 92 64 59 60
62 63 62 65 71 82 81 89 93 92 93 92 90 88 87 88 88 87 89 91 90 90 90 89 91 91 92 93 96 98 96 84 73
59 59 59 62 63 67 70 76 79 89 91 91 89 88 89 87 89 87 88 91 89 92 79 82 93 96 96 96 96 97 86 89 89
57 57 59 58 62 63 63 65 66 69 72 85 87 87 86 89 92 88 88 83 80 52 57 49 49 49 65 86 59 56 52 55 55
58 58 59 59 60 61 63 63 64 68 69 76 81 83 89 93 89 87 88 86 86 82 67 48 47 49 50 51 52 49 49 49 50

GFSFLT1_sfc_temp_054.txt.gz
Temp
77 95 96 94 91 90 88 89 88 87 82 80 81 82 81 81 83 84 84 85 86 86 86 87 86 86 85 85 85 85 83 83 83
74 80 91 94 93 92 89 90 88 87 83 82 82 83 82 81 82 83 84 84 85 87 86 90 86 86 86 86 85 84 83 83 82
77 75 72 87 95 93 92 92 91 90 87 83 83 83 83 83 82 82 83 82 82 84 87 87 84 85 85 86 86 85 84 84 83
85 81 75 74 71 96 95 94 93 91 89 85 84 84 83 83 83 84 83 84 82 84 85 87 87 87 86 85 85 85 84 83 84
88 85 77 73 70 74 95 93 93 92 91 89 86 85 83 83 84 83 83 82 85 85 85 86 87 86 86 85 85 85 84 83 85
96 83 76 74 69 74 96 95 93 94 92 92 91 87 86 85 84 84 84 82 84 85 84 85 87 86 84 84 84 84 84 84 83
95 95 81 76 80 79 96 94 91 91 93 94 93 89 88 85 84 85 85 84 83 85 85 84 85 85 85 85 85 85 86 85 84
86 93 95 95 95 79 88 91 91 91 94 92 93 89 88 86 85 85 84 84 84 84 84 85 85 84 85 85 86 89 84 85 84
81 82 91 90 87 95 92 92 91 91 91 92 92 88 87 86 85 84 84 83 83 83 83 84 84 84 84 84 89 79 75 82 85
79 80 78 94 92 89 81 94 93 91 91 93 90 88 87 86 85 84 83 84 83 83 82 84 83 84 84 84 85 74 72 74 86
79 79 76 87 94 95 89 81 79 96 94 89 89 87 87 86 85 84 84 83 83 82 84 83 83 83 84 84 85 72 68 71 82
82 79 82 88 91 91 88 89 90 94 94 91 90 88 87 86 87 84 84 82 82 83 84 83 83 84 83 83 84 68 68 68 80
80 74 86 85 88 89 89 88 92 91 94 91 88 89 88 88 87 86 83 83 82 84 84 84 86 85 85 80 84 68 66 69 85
81 74 79 81 81 82 84 86 88 86 88 91 91 91 92 89 87 86 85 84 84 84 84 85 83 84 85 85 83 83 63 62 83
76 75 75 78 78 79 84 87 86 83 84 88 90 90 89 88 87 89 90 84 84 84 83 82 82 82 84 87 86 71 63 60 64
70 67 68 71 74 76 84 81 85 83 84 86 89 88 86 87 87 87 87 84 83 84 83 83 83 84 84 86 88 87 65 60 60
62 63 62 64 67 70 70 72 75 85 86 88 88 86 85 86 86 85 86 88 86 85 84 84 84 84 85 86 88 89 88 75 68
59 60 61 62 63 63 64 68 71 75 76 84 87 86 86 86 87 84 84 86 86 86 87 84 85 87 87 87 86 88 81 79 81
58 59 60 59 60 60 60 62 67 71 72 74 87 86 87 87 88 86 85 84 79 52 55 50 53 57 76 75 58 53 53 56 60
58 60 59 57 57 58 59 59 63 65 68 72 77 85 85 88 84 87 84 84 79 73 60 47 46 46 51 55 55 49 48 46 52

GFSFLT1_sfc_temp_057.txt.gz
Temp
75 76 72 85 85 86 85 82 81 80 79 78 78 78 77 75 75 78 75 76 77 83 82 81 78 79 78 78 78 78 76 76 75
72 74 72 73 85 86 86 83 82 81 78 79 79 78 79 77 75 78 75 76 77 78 79 82 79 81 80 79 78 78 76 75 75
73 73 72 72 72 80 83 87 84 83 80 79 79 80 79 79 79 77 76 76 76 77 79 79 79 80 80 79 78 78 76 76 76
75 74 72 69 72 72 76 87 87 84 81 79 79 80 80 80 79 78 76 76 76 76 78 78 80 82 78 79 78 77 77 76 76
75 74 72 72 73 72 73 81 88 86 83 80 80 80 81 79 79 79 79 75 76 77 76 77 78 81 81 79 78 78 77 76 79
78 75 71 71 73 75 74 78 85 88 87 82 82 82 80 80 79 79 79 80 74 76 78 78 79 80 80 80 80 77 77 77 77
73 74 71 72 73 73 78 77 73 88 88 87 83 82 81 80 80 80 80 80 80 75 80 77 77 78 79 78 79 78 78 78 77
75 74 68 70 70 73 70 73 71 80 89 88 87 83 81 81 81 82 81 80 79 80 79 82 80 78 77 79 79 82 77 78 79
73 73 74 74 75 79 71 75 78 76 83 88 89 84 82 82 81 81 81 80 79 79 80 80 81 81 79 77 83 75 73 78 77
71 73 73 72 70 77 72 72 79 77 76 90 88 86 83 83 82 80 80 80 80 78 79 81 78 80 80 79 80 72 71 73 82
70 68 72 70 68 72 74 71 68 69 69 73 86 85 84 83 81 81 80 80 80 80 80 80 81 80 80 80 81 70 69 71 80
66 65 68 68 71 73 73 69 67 67 68 68 68 84 84 83 82 81 80 79 80 81 81 80 81 81 80 79 81 68 67 69 74
65 64 64 67 72 73 77 72 68 67 66 66 72 76 84 84 84 82 81 81 81 82 82 82 81 81 81 77 81 68 65 67 80
64 65 66 71 71 71 74 78 73 70 70 69 80 85 87 83 84 83 82 82 82 82 81 82 81 81 82 81 79 80 63 62 81
61 62 66 70 67 68 71 72 71 71 72 77 80 81 82 84 83 85 83 82 81 82 81 80 80 80 80 82 82 70 64 61 63
57 64 64 64 64 64 67 68 68 69 70 75 78 79 80 81 83 84 85 81 81 80 81 80 79 79 79 81 83 83 64 60 60
60 60 59 61 60 64 65 64 65 68 71 72 73 77 78 82 81 82 86 83 83 82 81 80 80 80 80 81 82 83 84 71 65
57 59 59 60 59 60 60 62 63 66 66 68 69 74 79 82 85 80 84 84 82 83 84 81 82 82 82 81 80 82 77 75 75
57 57 58 57 58 59 59 59 60 62 63 65 67 70 78 82 85 81 83 82 67 50 53 52 57 63 77 83 64 64 59 54 57
57 57 57 56 56 56 57 57 57 59 60 63 64 68 76 83 81 83 81 81 77 69 58 48 46 46 55 57 60 51 50 48 52

GFSFLT1_sfc_temp_060.txt.gz
Temp
74 75 73 77 82 81 80 79 79 77 76 76 76 77 75 73 74 74 73 73 78 80 80 79 77 77 76 75 76 75 74 73 73
70 73 74 77 84 84 79 79 79 78 76 76 77 77 77 75 74 74 72 74 74 76 79 79 77 78 77 76 75 75 74 73 73
73 73 74 76 81 84 80 80 81 80 79 78 77 78 78 78 76 74 73 73 74 75 76 77 76 77 77 76 75 75 74 73 74
75 73 72 72 77 78 78 77 80 79 79 78 77 78 78 78 78 76 72 74 74 75 74 76 77 78 78 77 76 75 74 73 74
72 72 73 74 75 74 77 78 80 80 79 79 79 79 78 78 78 78 76 74 76 74 74 74 76 77 78 78 77 76 74 73 76
73 70 72 70 70 68 75 77 81 81 81 79 80 79 79 78 78 77 78 78 72 73 75 73 75 77 78 78 78 76 75 75 74
67 66 68 66 71 72 73 73 73 78 82 80 81 80 79 78 78 78 78 79 78 72 73 77 74 76 78 78 78 78 77 76 74
68 66 68 68 69 75 72 70 72 74 77 83 81 79 79 78 79 79 79 79 79 77 73 77 77 76 77 78 79 80 78 77 75
65 65 67 74 71 73 72 74 75 73 72 75 81 79 79 79 79 78 78 77 78 77 77 76 76 74 77 77 81 74 71 76 76
63 63 65 64 66 69 69 70 71 72 70 71 73 80 80 79 79 78 77 77 77 77 77 78 77 77 75 76 78 70 69 71 79
60 63 61 62 65 65 70 69 68 68 69 69 70 69 79 80 79 78 78 78 77 77 77 77 78 78 79 78 78 68 67 70 78
60 61 62 63 64 64 69 69 70 68 70 69 68 69 68 77 80 78 78 77 77 78 78 77 78 79 77 78 79 66 65 67 76
59 61 63 64 63 67 71 69 68 67 68 70 68 69 71 72 78 80 79 78 79 79 80 79 79 79 80 75 79 67 64 66 78
58 59 62 64 64 66 69 70 67 66 67 66 68 70 70 71 75 80 81 80 80 80 79 80 79 78 79 80 77 79 62 61 78
54 57 60 65 62 61 66 69 68 69 68 71 71 71 70 72 76 80 83 81 80 80 79 78 78 77 77 80 80 68 63 60 62
51 54 57 62 61 59 65 66 65 65 69 71 71 71 72 74 77 82 84 81 80 79 80 79 77 78 77 78 80 81 63 60 60
49 52 54 58 58 61 61 62 64 62 67 68 67 67 69 73 74 76 76 83 75 80 79 79 79 78 77 78 79 79 81 72 65
50 52 56 56 58 56 58 59 61 60 64 64 64 65 67 71 73 72 74 77 77 79 79 78 80 80 80 79 78 79 73 74 76
49 51 56 55 55 57 57 57 58 58 58 60 60 61 65 70 75 75 77 75 68 52 55 57 58 59 74 81 69 62 56 53 57
52 54 57 55 53 53 54 54 56 57 58 58 57 58 62 66 68 79 79 80 76 72 59 48 47 50 53 57 65 53 52 53 51

GFSFLT1_sfc_temp_063.txt.gz
Temp
74 73 73 77 77 77 77 78 77 76 74 74 74 74 73 71 72 74 72 72 72 74 75 75 75 74 74 74 74 74 72 72 71
70 73 74 76 79 78 78 78 77 76 75 75 75 75 75 71 72 72 72 72 72 73 75 77 75 74 74 74 74 73 72 71 72
70 72 74 74 79 79 79 79 79 78 77 76 76 76 77 75 73 72 71 72 72 72 74 75 74 74 74 74 74 74 72 71 72
72 71 71 72 76 80 79 79 79 78 77 77 76 77 77 77 74 72 71 71 72 73 72 74 74 74 74 73 74 73 72 72 72
70 70 71 71 70 69 70 71 72 74 77 77 77 77 77 77 77 75 72 71 71 72 73 73 72 74 74 74 74 73 73 72 74
66 67 66 66 66 66 68 70 74 74 75 77 79 78 77 77 77 76 76 74 71 71 72 72 73 73 73 74 75 74 74 73 73
65 65 64 63 63 65 68 70 71 72 77 79 78 78 77 76 76 77 77 77 75 71 72 72 72 73 74 74 75 76 75 74 72
62 61 62 61 62 64 68 69 68 71 74 79 78 78 77 76 77 77 77 77 77 73 71 73 73 74 74 75 76 77 74 74 74
58 60 61 61 63 61 67 68 69 69 71 72 79 76 76 75 77 77 76 76 76 76 73 72 71 73 75 74 78 73 71 75 75
55 57 59 59 60 60 59 65 68 68 67 69 74 77 75 75 74 76 75 76 75 75 76 76 74 74 75 75 76 69 69 70 79
53 56 56 59 63 61 59 63 66 68 69 68 70 73 77 77 77 75 75 75 74 75 76 75 75 75 75 74 76 68 66 69 76
53 55 57 59 63 61 59 64 68 68 67 68 68 69 71 77 78 76 76 75 75 75 76 75 75 76 76 75 76 65 65 66 74
52 56 57 59 61 62 65 66 67 66 66 68 68 69 70 70 74 77 76 76 76 77 76 76 76 75 76 74 77 65 63 65 76
52 54 56 59 61 63 64 68 65 66 66 65 68 69 68 68 71 69 75 74 73 75 75 75 75 75 76 77 75 76 61 60 76
49 51 54 57 58 59 65 65 63 64 64 67 70 71 68 68 69 70 72 72 76 74 73 72 75 75 75 77 78 66 62 59 62
48 49 51 54 55 57 63 62 64 62 63 64 66 65 66 69 71 72 70 71 76 77 77 76 75 75 75 76 78 78 61 59 59
48 50 50 52 52 55 59 64 65 65 62 63 62 62 64 66 67 70 73 74 74 78 78 77 77 76 75 77 77 77 78 68 63
50 51 52 53 51 53 57 62 62 64 62 59 58 60 63 63 65 68 71 73 73 76 81 77 78 79 77 73 76 77 72 73 74
47 49 50 50 51 52 56 57 59 60 57 56 56 57 62 63 63 65 69 71 70 52 57 55 56 57 70 77 66 61 56 54 54
48 48 48 48 50 54 56 54 54 55 54 54 53 54 57 61 61 65 66 70 72 72 60 49 50 49 52 53 63 51 52 51 52

GFSFLT1_sfc_temp_066.txt.gz
Temp
72 73 75 77 75 76 75 75 75 75 73 72 73 73 72 72 72 73 73 73 73 73 74 76 76 76 76 75 76 75 74 75 75
69 71 73 74 77 76 75 75 74 75 73 74 73 74 73 71 71 72 72 73 73 74 75 77 77 75 75 76 76 75 75 75 74
66 70 72 73 76 76 77 77 76 76 76 75 75 75 75 74 73 72 73 73 73 73 75 76 76 76 76 75 76 75 75 75 75
64 70 70 71 71 75 76 78 77 76 76 75 75 75 75 74 73 72 72 73 74 74 74 75 75 76 76 75 75 76 75 75 75
63 64 66 69 70 69 71 72 73 75 77 76 77 76 75 74 74 73 72 72 73 74 74 74 75 75 76 75 75 75 75 75 77
61 62 63 64 66 67 68 70 71 72 73 77 78 76 77 75 74 73 73 73 72 73 73 73 75 75 75 75 76 76 76 76 76
61 59 60 60 60 63 67 68 69 70 72 75 77 77 76 75 74 74 75 74 73 73 73 73 74 75 75 76 76 76 77 76 76
58 58 60 60 59 59 60 64 69 69 71 73 76 76 76 75 75 75 75 74 73 73 73 74 74 74 76 76 77 78 76 77 76
53 54 57 59 61 61 60 60 63 68 69 69 75 74 75 75 75 75 74 73 73 73 73 73 72 73 75 75 79 71 70 74 77
51 52 54 56 59 58 58 59 61 64 68 69 69 73 74 73 75 74 74 74 73 73 72 73 72 72 73 74 76 68 68 69 78
48 50 52 54 57 60 59 59 61 66 69 69 69 70 74 74 72 73 74 74 73 73 74 73 72 73 73 73 75 67 66 68 76
49 49 51 54 57 59 61 61 63 66 68 68 69 70 71 74 74 73 73 73 73 74 74 73 74 74 73 73 74 64 64 67 76
49 50 51 52 55 57 60 61 63 64 65 67 67 69 70 71 72 75 74 72 73 73 74 75 76 75 74 71 74 64 62 65 77
50 50 52 53 53 54 57 61 60 61 63 64 68 70 70 70 70 70 75 74 73 73 73 73 74 74 75 74 73 74 60 60 75
48 49 51 53 52 52 55 58 57 59 61 66 68 68 68 69 69 70 72 72 74 73 72 72 72 73 74 75 75 65 61 59 61
48 51 52 52 51 51 53 55 57 58 62 66 65 66 65 66 68 70 70 70 70 72 73 74 73 74 74 75 77 76 61 58 58
48 50 50 51 51 50 51 55 58 59 64 65 64 62 63 64 65 65 68 71 71 72 75 74 74 74 74 76 76 77 78 71 65
47 49 51 52 52 52 52 54 55 58 62 63 61 61 62 63 64 65 66 70 72 74 75 76 77 77 77 75 75 77 69 70 74
46 46 49 48 49 49 51 53 54 56 60 61 59 58 61 62 63 63 65 65 68 59 57 52 52 57 70 78 66 57 54 53 52
46 46 47 47 48 49 49 51 54 56 60 58 56 55 57 59 59 62 62 63 65 67 67 52 50 48 49 53 64 52 52 50 49

GFSFLT1_sfc_temp_072.txt.gz
Temp
89 90 92 91 91 91 91 91 91 90 88 84 85 86 85 86 86 90 90 90 93 93 94 94 92 89 90 90 90 90 89 91 92
86 89 90 89 92 92 92 91 90 89 88 86 86 88 86 86 86 86 90 89 90 93 92 95 92 91 90 90 89 89 88 92 88
81 86 88 91 89 92 93 94 93 92 91 88 88 89 88 88 88 87 88 89 87 89 92 91 92 90 90 90 89 88 88 90 89
66 69 73 74 80 89 92 94 93 92 92 90 89 90 89 89 89 89 88 88 88 88 90 90 90 89 88 89 89 89 87 89 90
64 66 67 66 66 64 74 88 92 93 93 93 92 91 89 88 88 89 90 88 88 89 88 90 90 88 89 88 90 90 88 88 91
62 63 63 63 63 59 60 68 70 85 92 95 94 89 89 87 86 87 88 89 89 88 88 88 91 90 87 88 88 89 89 89 89
61 62 63 63 59 58 59 62 64 70 79 87 92 93 90 87 85 86 89 89 88 88 88 87 88 89 90 89 91 90 89 89 89
61 60 61 62 62 60 59 58 59 65 71 75 81 82 89 88 87 87 87 88 88 88 88 88 88 88 89 90 91 94 90 90 89
66 65 62 63 65 63 62 62 59 61 65 70 72 77 81 83 88 87 86 85 85 86 87 87 87 87 88 88 93 79 74 83 91
65 65 66 67 63 63 64 65 68 64 63 70 70 71 76 81 81 83 85 86 85 84 83 86 85 86 87 87 88 72 69 73 91
64 65 65 67 70 68 65 66 65 68 69 68 69 68 71 76 81 82 82 82 82 84 85 84 85 86 86 86 88 71 68 69 87
65 66 67 68 70 70 70 71 67 64 62 62 64 65 67 71 72 78 80 82 81 80 82 84 85 86 85 85 86 67 66 70 87
66 67 67 67 68 69 71 71 72 70 70 63 61 62 67 69 73 72 75 79 79 80 79 81 85 86 87 80 85 68 63 69 89
65 65 65 66 67 67 69 70 70 68 69 70 67 65 65 66 73 73 70 74 79 77 79 80 81 81 86 86 84 83 61 60 84
62 62 63 65 64 65 68 69 68 66 65 68 68 66 61 62 66 72 75 74 72 78 79 78 79 79 83 88 87 70 65 59 61
61 60 60 62 61 60 63 66 67 64 65 66 66 66 67 62 67 73 74 74 75 71 79 80 76 76 83 86 89 90 63 59 58
60 60 59 60 57 57 58 62 63 64 65 66 65 64 66 68 64 68 73 77 81 79 74 84 86 83 77 80 87 88 93 85 77
60 60 59 58 56 54 56 59 59 61 63 64 64 65 66 68 72 70 72 75 78 81 76 74 84 83 85 83 84 88 78 80 93
58 58 56 54 57 54 54 56 57 60 61 59 59 62 66 69 72 74 76 75 75 65 58 57 55 53 59 80 68 56 56 53 54
58 56 55 55 53 51 54 54 53 56 59 56 56 56 59 65 62 70 72 73 72 72 76 55 52 50 50 50 57 54 49 48 50

GFSFLT1_sfc_temp_075.txt.gz
Temp
90 89 91 92 91 86 86 89 93 93 89 86 87 87 87 87 88 91 91 90 90 92 82 80 90 90 89 90 88 90 89 91 91
91 89 84 89 91 91 86 87 93 93 91 88 88 89 88 87 88 87 91 92 91 93 88 78 93 91 90 91 91 90 90 90 89
76 72 68 67 75 86 89 90 93 95 94 89 90 91 90 90 89 88 89 91 89 92 86 93 80 91 91 91 91 90 89 89 90
71 68 69 70 66 68 71 74 89 91 95 92 91 91 91 90 90 91 89 89 90 89 91 91 91 90 91 91 90 90 88 87 91
68 64 61 65 65 65 64 67 69 71 91 95 94 93 91 91 91 91 91 89 90 90 89 91 91 91 90 90 90 91 89 88 92
63 66 66 61 64 62 58 64 69 71 74 83 96 94 95 93 92 91 91 90 90 90 89 89 91 90 89 89 90 90 90 89 89
65 64 62 63 59 61 61 60 61 68 71 80 79 79 95 91 90 90 89 91 91 90 90 89 89 90 91 90 90 91 89 88 87
63 63 64 64 64 61 59 61 60 61 68 71 74 75 79 81 91 89 86 89 90 90 90 89 89 89 90 91 92 94 91 91 90
64 64 66 66 66 65 65 64 63 63 65 68 70 72 76 81 85 82 86 88 88 89 89 89 89 88 89 89 93 81 74 85 92
69 70 68 69 70 70 68 70 68 68 65 67 68 68 71 73 77 82 81 83 82 85 86 88 87 88 88 88 89 75 70 74 92
69 70 70 72 74 71 68 71 71 73 74 71 69 67 67 68 70 75 78 80 80 81 82 82 86 87 88 88 89 73 69 70 88
70 71 72 73 74 74 74 74 72 70 73 71 70 70 67 65 68 70 73 72 77 82 83 84 84 86 86 86 87 68 68 70 88
70 71 72 71 72 74 75 74 76 74 73 70 71 67 69 68 67 69 71 73 72 75 79 85 88 86 87 81 87 71 64 68 89
69 69 69 70 70 70 71 73 73 71 71 72 73 73 73 72 71 69 70 75 76 74 75 78 81 83 84 84 84 86 62 61 84
67 66 67 68 67 67 68 69 69 68 68 71 71 70 70 70 71 73 73 71 74 76 76 75 78 79 79 82 83 72 66 60 61
66 66 66 67 66 64 66 66 66 64 66 68 68 68 68 69 70 72 73 70 73 76 78 77 77 78 78 80 80 85 66 60 60
65 66 65 66 64 63 62 64 65 64 65 66 65 64 65 68 69 70 72 76 71 75 81 82 82 79 75 76 78 81 87 85 70
64 64 65 63 61 61 61 63 62 64 65 64 63 64 64 66 70 71 73 76 78 77 75 78 80 83 82 78 70 82 63 61 70
62 63 63 61 60 59 61 61 61 62 62 61 60 61 64 66 68 71 73 75 78 63 60 58 55 53 62 79 65 57 56 53 54
62 65 62 60 57 59 59 59 59 60 59 58 57 55 59 61 61 66 69 71 72 74 75 55 54 51 51 52 57 53 48 47 51

GFSFLT1_sfc_temp_078.txt.gz
Temp
88 86 86 78 88 87 84 84 85 86 83 81 83 83 83 83 84 81 83 75 81 78 75 77 85 85 85 86 85 86 85 84 83
72 70 68 72 86 88 79 86 85 86 83 83 84 85 84 83 83 83 86 85 86 81 76 81 82 84 85 85 83 85 83 80 82
68 65 65 65 69 76 76 86 89 90 86 84 85 86 86 86 85 85 85 85 85 88 76 75 75 73 81 85 83 83 83 82 80
63 62 61 62 63 66 70 74 76 71 87 86 86 87 86 85 86 86 85 85 87 87 89 76 73 72 72 79 85 85 83 81 81
64 59 60 61 60 60 61 66 70 68 73 73 88 88 86 86 86 86 86 85 86 87 85 86 78 74 72 80 83 82 83 82 84
65 61 59 61 61 60 59 58 62 67 68 68 71 78 89 88 87 85 86 84 86 86 85 85 87 86 85 85 84 84 82 83 83
65 65 63 59 60 61 62 58 60 62 67 66 68 71 72 81 87 87 88 85 84 84 85 85 85 85 84 84 85 85 84 82 82
65 65 65 66 63 63 63 63 63 59 60 66 68 69 71 70 71 84 88 86 84 85 84 85 85 85 84 84 86 89 85 84 83
66 66 67 67 68 68 66 65 65 65 62 61 66 67 68 69 72 75 79 82 83 85 84 84 83 84 84 84 90 80 75 82 85
68 68 70 70 69 69 70 71 70 67 65 66 62 63 67 67 69 70 72 78 82 83 82 83 82 83 84 83 84 74 70 72 86
69 70 70 71 73 71 72 73 72 72 73 70 68 69 68 66 67 69 71 74 71 74 79 80 80 81 83 83 85 72 70 69 80
70 71 72 72 73 74 74 73 74 72 72 72 72 70 70 68 67 67 69 70 71 71 73 77 78 79 81 82 83 69 67 70 81
71 72 71 70 72 74 73 72 74 72 72 72 71 70 71 71 71 69 67 66 70 72 74 74 76 78 80 77 81 70 65 67 81
70 69 69 69 69 68 68 69 69 67 69 69 70 70 70 70 70 69 70 70 69 70 69 72 74 74 77 79 79 80 63 62 80
68 67 68 69 67 66 67 67 66 64 64 67 67 67 67 68 68 70 71 68 69 69 70 70 73 73 75 80 81 70 68 60 61
66 67 66 68 66 65 65 65 64 62 63 64 64 64 64 65 66 67 68 68 69 70 70 72 74 76 76 79 82 82 65 62 59
66 65 65 65 63 62 62 64 64 63 63 64 63 61 62 64 64 64 66 69 71 72 73 72 75 77 78 79 77 77 77 77 73
64 64 64 63 61 61 60 62 61 63 63 62 60 60 61 62 65 65 66 68 71 72 73 74 74 75 74 73 73 73 64 63 68
63 63 64 61 61 60 60 60 60 61 61 59 57 56 59 60 61 63 64 65 66 63 58 56 53 52 59 73 62 57 55 52 49
63 63 63 61 60 60 59 58 58 59 59 58 56 54 55 57 58 59 60 61 61 61 65 59 53 50 51 51 56 53 49 46 46

GFSFLT1_sfc_temp_081.txt.gz
Temp
73 74 72 75 79 81 81 79 80 80 76 74 75 75 75 75 75 72 72 73 72 72 71 74 77 77 77 77 78 77 76 76 76
64 67 67 70 71 71 79 77 81 80 78 77 77 76 75 75 75 74 73 72 72 74 73 77 74 75 77 77 77 78 76 74 75
61 62 65 65 66 66 70 73 77 81 79 78 78 78 78 76 76 76 75 74 76 74 73 73 74 75 75 76 77 79 76 75 76
58 59 59 61 63 64 65 68 69 70 70 71 74 77 76 76 76 77 76 76 77 74 73 71 72 73 73 73 76 77 76 75 76
58 59 58 59 59 60 62 65 66 67 68 68 69 70 72 77 77 78 76 76 77 78 74 72 71 71 70 72 75 76 75 75 78
59 58 58 59 58 57 59 61 63 66 66 66 68 68 70 72 74 76 75 76 78 78 74 72 72 72 72 74 75 75 76 76 76
60 59 59 58 56 59 59 59 60 61 63 66 67 68 67 68 68 69 72 76 78 77 78 77 76 77 76 76 77 78 77 77 76
62 62 61 60 59 59 60 59 60 60 61 62 64 65 66 67 69 68 69 71 74 76 77 78 78 78 77 78 79 82 78 77 77
61 59 63 63 63 63 62 61 59 60 60 61 62 61 62 65 67 69 70 71 71 75 75 77 77 76 77 77 83 77 74 77 77
61 61 61 60 60 61 61 62 62 60 61 61 62 62 61 62 64 65 67 70 69 68 72 75 76 76 77 75 77 72 70 71 80
61 62 62 61 61 61 62 63 64 65 68 66 62 63 63 63 63 63 64 67 67 67 69 70 74 74 75 75 77 70 70 69 73
61 61 61 62 63 63 61 62 63 63 64 64 64 65 65 66 66 67 65 63 64 67 67 69 70 73 74 74 75 68 65 66 71
62 61 60 60 61 61 60 59 61 60 61 61 61 63 64 65 65 65 64 65 65 66 67 67 68 70 71 71 74 68 63 64 71
60 59 60 60 59 57 57 58 58 56 57 56 59 61 62 63 64 62 64 64 64 63 63 64 66 67 69 72 73 74 64 61 70
59 58 60 60 56 56 56 57 56 54 53 56 58 58 58 59 60 63 65 61 62 64 65 65 66 66 67 70 74 66 66 61 59
58 57 57 56 55 54 55 56 55 52 53 55 55 55 55 55 57 59 60 58 58 61 62 62 65 68 71 73 74 75 63 59 59
54 55 54 54 53 52 52 53 54 53 54 54 53 51 52 54 53 55 56 60 61 60 61 65 66 66 68 67 69 69 69 69 68
54 54 53 53 51 51 51 52 52 52 52 51 50 50 51 51 53 53 55 57 58 59 61 60 59 61 65 67 68 68 61 62 66
54 53 52 52 52 51 50 51 50 51 51 50 47 48 49 50 51 51 53 53 54 55 53 52 51 50 51 62 57 54 53 50 48
56 55 56 52 51 50 50 50 49 50 50 49 47 45 46 48 49 50 51 52 52 51 55 53 51 49 51 51 49 48 46 47 47

GFSFLT1_sfc_temp_084.txt.gz
Temp
72 71 72 72 74 77 76 75 77 78 74 73 72 72 73 73 72 70 69 71 71 71 71 73 75 75 75 75 76 75 74 73 74
63 66 67 69 69 69 73 74 76 78 74 74 73 72 72 73 73 72 72 71 71 71 72 75 75 76 75 75 75 75 74 72 73
60 60 62 65 66 67 69 71 70 73 76 74 75 73 73 73 73 73 73 71 71 71 72 75 73 74 75 75 75 75 74 73 73
57 58 60 60 63 67 68 68 69 69 69 70 69 69 70 72 73 74 73 72 73 73 72 72 73 72 73 73 74 75 74 72 73
57 58 59 59 60 63 65 66 67 68 68 68 68 69 70 71 71 72 73 73 74 72 72 72 72 72 71 72 73 73 73 73 76
57 58 58 58 59 59 61 63 65 66 67 68 68 68 68 69 69 71 71 72 74 73 73 72 72 71 71 70 72 72 74 74 74
58 58 58 58 57 58 59 60 61 64 65 67 68 67 68 67 67 67 68 70 71 72 72 72 71 71 71 72 73 74 74 75 74
58 58 59 59 58 59 58 59 60 61 62 63 65 66 66 66 68 68 69 69 69 69 71 73 72 72 73 74 75 78 75 75 74
60 60 61 61 62 61 60 60 59 61 60 61 62 62 62 64 65 67 67 69 69 69 69 72 73 73 74 75 79 73 71 75 74
61 62 63 63 62 62 62 63 63 61 60 62 62 61 61 61 62 62 63 67 68 67 68 69 71 72 72 73 74 70 69 70 74
59 59 62 62 64 63 63 62 63 63 63 62 62 63 63 62 62 62 63 64 64 65 67 68 68 70 71 72 73 67 66 67 70
58 56 57 57 58 57 57 58 58 60 60 60 61 62 62 63 63 63 64 62 63 63 65 64 66 67 69 69 71 64 62 64 69
57 58 57 56 56 57 57 55 57 57 55 55 55 57 60 61 63 62 62 61 60 62 63 64 65 66 67 66 69 65 62 63 69
57 57 56 56 55 53 53 54 54 51 51 51 54 56 57 58 59 60 61 61 61 60 60 61 63 64 66 67 67 68 61 60 68
56 55 55 55 52 52 52 53 52 50 50 52 53 53 53 54 56 59 61 59 60 60 60 61 62 63 62 66 69 63 62 59 58
53 54 52 53 51 50 50 51 51 48 49 50 51 49 49 50 52 55 56 56 57 59 60 60 62 63 63 66 66 69 61 57 58
52 51 51 51 50 48 48 49 50 48 49 49 48 46 47 48 47 49 50 55 57 56 56 57 57 57 58 60 62 63 60 61 62
51 50 50 50 48 47 47 47 47 48 48 47 45 45 45 44 45 44 45 48 50 53 53 53 53 55 55 55 56 60 53 50 53
50 49 48 48 47 47 46 47 46 47 47 46 43 42 43 43 43 43 45 45 48 51 50 49 47 46 47 55 52 49 47 45 46
52 50 49 48 47 47 46 46 46 46 46 45 44 41 43 43 44 44 43 44 44 45 49 50 47 46 47 47 47 47 45 45 45

GFSFLT1_sfc_temp_087.txt.gz
Temp
70 69 69 72 72 73 72 74 75 76 73 73 70 71 71 71 70 68 68 70 70 70 71 72 73 73 73 73 74 73 73 72 72
62 64 66 68 71 72 72 72 76 76 75 75 72 71 71 71 70 70 69 70 71 71 71 74 73 73 74 73 74 74 73 71 72
60 62 62 64 66 68 69 69 72 74 75 74 73 70 70 71 71 71 71 70 70 70 71 71 73 73 74 73 73 73 72 72 71
58 59 60 62 63 67 69 70 71 70 70 70 69 71 71 71 71 71 71 71 71 70 70 71 73 72 73 73 73 73 72 72 72
58 59 59 60 62 64 66 68 69 69 69 68 68 68 69 70 71 72 71 71 72 71 72 71 70 72 71 71 71 72 72 72 74
57 58 58 59 60 61 62 65 67 68 68 68 68 68 68 68 67 69 70 71 72 73 71 70 70 71 70 70 71 71 72 72 72
55 58 57 57 58 59 60 61 63 66 68 68 68 68 68 67 67 67 67 68 68 70 71 71 70 70 70 70 71 73 72 73 72
57 57 59 58 58 58 58 60 61 62 64 65 67 67 67 66 68 67 68 68 68 68 69 70 72 71 70 71 72 75 72 73 73
56 58 59 60 61 60 59 59 60 61 61 61 62 63 64 65 66 66 66 68 68 68 68 68 68 70 71 71 75 71 69 73 73
57 60 61 62 62 62 61 62 61 61 60 61 62 61 62 62 62 62 62 63 64 66 66 67 67 68 70 71 71 67 66 69 73
61 62 62 62 62 60 60 62 62 61 62 62 62 63 62 62 63 62 62 63 62 63 64 64 64 65 66 68 70 64 62 64 68
59 57 58 57 59 59 59 60 60 59 59 60 59 60 60 60 60 62 61 59 60 61 62 62 63 64 65 66 66 62 61 63 68
55 56 57 55 55 55 55 53 55 54 53 55 54 55 57 59 60 59 60 59 57 59 60 62 63 64 65 64 65 62 60 61 67
54 54 53 53 53 51 50 51 53 50 50 49 52 53 54 54 55 57 58 59 58 58 58 57 58 61 62 64 64 65 57 56 65
53 52 52 52 50 49 49 50 50 47 47 48 50 50 50 50 51 54 55 54 57 59 60 59 60 60 57 59 64 60 57 55 55
52 52 51 50 49 48 48 48 48 46 46 48 48 47 46 47 48 50 50 50 52 54 55 56 56 56 57 58 58 63 56 56 55
50 50 50 49 48 46 45 46 47 46 46 47 46 45 44 45 44 45 45 48 50 49 50 51 53 53 52 53 56 58 59 58 56
50 49 48 48 46 45 44 45 45 46 46 45 43 43 43 42 43 41 43 44 45 47 48 48 48 50 50 50 51 55 50 48 51
49 48 46 46 45 44 44 44 44 45 45 44 42 41 42 41 41 41 42 41 42 47 48 47 46 45 45 51 49 47 45 44 44
51 47 47 47 46 45 44 44 44 44 44 43 42 40 40 40 42 41 40 41 40 40 44 48 46 45 45 45 45 45 44 43 43

GFSFLT1_sfc_temp_090.txt.gz
Temp
68 66 68 71 71 72 72 74 75 75 74 73 71 72 72 71 71 71 71 72 71 72 72 74 76 76 76 75 76 76 75 76 77
63 66 68 69 69 72 70 71 75 75 73 73 72 73 72 71 71 71 71 71 73 72 73 75 75 75 75 75 76 76 75 75 75
61 63 64 66 67 70 70 71 71 74 74 72 71 72 72 72 72 72 72 72 72 72 73 74 74 75 75 74 75 75 74 74 75
60 61 62 63 64 68 69 70 71 71 71 71 70 70 72 72 72 73 73 72 73 72 73 73 72 73 75 74 74 75 74 74 75
59 60 60 62 63 65 68 69 70 70 69 69 69 69 70 71 72 73 73 71 73 74 73 73 72 73 74 74 75 75 75 74 75
58 58 59 60 62 63 64 67 68 68 69 68 68 68 68 68 68 69 69 71 72 73 74 73 72 72 71 72 73 73 74 75 74
58 58 58 58 59 61 62 63 65 67 68 68 68 68 68 68 68 69 69 69 69 70 72 73 73 73 72 72 73 73 74 75 74
57 57 58 58 58 59 60 61 63 64 65 66 68 68 68 67 68 68 69 69 70 70 70 70 72 73 73 73 73 76 73 74 74
56 58 59 60 60 60 59 60 61 62 63 63 65 64 65 66 66 65 66 68 68 68 68 69 70 70 72 72 74 68 68 72 75
55 56 58 60 60 61 60 60 61 60 61 63 63 62 62 63 63 63 63 65 65 66 65 66 67 68 69 69 71 64 63 65 71
56 58 59 59 59 60 60 60 59 60 61 61 61 61 60 61 61 61 62 63 62 63 64 65 65 66 67 68 69 62 61 63 69
57 59 59 59 59 59 60 59 60 58 57 58 59 58 59 59 60 60 60 59 60 60 61 62 63 65 65 66 66 57 58 60 68
57 58 58 57 57 59 58 57 59 57 55 55 54 55 56 57 59 58 57 58 57 59 59 61 63 64 62 62 63 56 56 60 63
55 55 54 54 53 52 52 53 54 51 51 51 52 54 54 53 54 56 55 57 58 58 59 58 58 58 59 60 59 57 55 55 57
53 52 52 53 51 50 50 51 52 49 49 50 51 51 51 50 51 53 54 53 55 56 56 56 55 57 57 58 59 56 55 54 55
53 53 51 51 50 48 49 50 50 48 48 50 49 48 48 48 49 50 50 50 51 52 53 54 54 55 54 55 58 58 55 54 54
51 52 50 51 49 48 47 49 49 49 49 49 48 47 47 47 48 48 48 50 51 50 50 50 51 51 50 52 54 56 56 55 55
52 51 50 51 49 48 47 48 47 48 48 48 46 46 46 46 47 46 47 48 48 49 50 49 49 50 50 50 50 52 48 47 51
51 50 49 48 48 48 47 47 47 47 47 47 46 46 46 46 46 46 47 46 47 47 47 46 44 44 46 51 48 45 43 42 43
51 50 49 49 48 48 47 46 46 47 46 46 45 44 45 46 46 46 45 45 45 44 47 46 45 44 44 44 42 43 42 42 42

GFSFLT1_sfc_temp_093.txt.gz
Temp
79 80 80 81 80 76 72 73 80 80 81 80 80 80 80 81 81 84 85 83 84 84 82 82 85 84 85 84 84 84 84 86 88
77 77 77 79 81 80 78 72 77 82 79 79 81 82 81 81 81 81 83 81 82 85 83 86 84 85 85 84 84 84 83 86 84
67 72 74 73 77 79 79 74 71 74 74 79 79 79 80 82 81 81 82 81 81 82 84 82 82 83 84 83 84 84 82 84 84
63 64 66 67 71 73 73 72 71 73 73 79 76 72 74 79 82 83 80 82 82 81 81 81 81 81 82 83 82 83 80 81 83
66 65 64 65 67 70 73 73 71 72 73 75 74 77 72 73 79 82 80 80 81 81 81 81 81 81 82 81 84 82 82 82 84
61 63 63 63 65 66 70 74 74 70 70 71 70 70 69 69 71 78 79 79 81 81 81 81 81 80 80 81 81 81 82 82 82
61 62 62 62 62 63 65 70 70 73 71 72 70 70 69 69 70 73 76 78 78 79 80 81 81 82 81 80 81 82 82 82 82
60 61 61 61 61 61 63 64 66 68 69 69 69 69 68 68 69 73 75 76 76 77 78 79 81 81 81 81 81 81 80 81 82
61 62 61 61 61 61 61 61 63 64 64 66 69 69 68 69 70 67 67 73 74 75 75 75 77 78 76 77 77 64 65 72 81
63 63 62 61 60 59 59 60 61 61 62 64 64 64 65 65 66 67 65 67 69 72 72 74 73 74 76 75 75 61 61 65 80
65 66 66 65 65 61 59 60 59 60 62 62 62 62 62 63 63 65 67 68 66 67 69 71 72 73 74 71 68 59 59 62 78
67 67 68 68 69 64 61 60 59 58 57 58 60 59 60 62 62 63 64 63 66 67 69 70 71 71 71 66 63 57 58 68 75
67 67 64 63 62 62 62 61 61 59 56 56 55 57 58 59 59 59 59 61 64 66 68 69 71 69 67 60 60 56 56 63 73
67 63 62 61 63 61 58 60 63 59 60 57 58 58 61 60 61 57 58 62 63 63 64 66 66 65 65 63 62 58 54 55 64
64 62 63 65 63 63 64 64 61 58 56 58 58 58 59 59 59 62 59 59 60 60 60 59 62 63 65 65 61 55 54 53 54
63 63 63 65 64 61 62 62 63 60 58 59 59 59 58 58 59 59 59 59 59 63 60 60 57 61 63 62 64 63 55 54 54
62 62 61 63 62 61 59 60 60 60 59 59 59 57 57 58 58 58 59 62 62 61 61 61 61 59 57 56 60 59 59 59 59
61 61 61 62 61 61 59 59 58 59 58 59 58 57 57 58 59 58 58 58 59 60 57 56 59 58 59 58 55 51 47 47 54
58 59 59 60 61 60 59 58 58 57 58 58 58 58 59 59 60 60 59 59 57 46 47 45 43 43 49 57 46 44 43 41 42
59 60 59 57 57 60 58 58 57 57 58 58 57 57 57 57 58 59 58 58 59 58 51 46 44 43 43 43 42 42 41 41 41

GFSFLT1_sfc_temp_096.txt.gz
Temp
87 89 92 92 83 80 80 90 88 81 82 86 86 86 86 86 86 89 86 89 89 84 89 90 91 89 90 90 90 90 89 91 92
86 87 90 91 90 89 87 79 82 79 78 85 87 88 86 86 85 85 89 86 87 86 86 93 90 90 89 90 90 89 89 92 89
87 86 87 88 90 87 81 76 74 79 85 78 83 86 88 86 87 87 88 88 85 86 90 88 88 89 90 89 89 88 86 90 89
75 83 83 83 85 87 86 78 73 71 72 78 82 82 84 82 86 89 88 87 88 87 88 87 85 86 88 88 87 88 86 86 88
69 71 70 73 79 80 77 79 74 72 71 72 74 82 80 81 85 86 88 87 88 87 86 86 86 87 86 86 89 88 87 86 89
69 68 68 68 73 76 78 77 73 72 72 77 76 73 75 77 75 81 84 85 87 88 87 86 89 88 85 87 88 87 86 87 87
67 68 66 65 65 70 72 76 78 77 74 73 72 71 71 70 71 74 77 83 85 87 87 86 88 88 88 88 88 88 88 88 87
68 70 70 65 63 64 65 69 76 77 76 75 76 72 70 72 73 73 75 78 81 85 86 87 86 87 88 88 89 91 86 87 87
69 69 70 67 64 64 63 63 66 71 73 74 77 73 73 72 75 74 73 75 78 80 81 82 84 84 85 86 90 63 65 74 87
70 71 71 67 64 63 63 62 63 63 64 66 67 68 68 68 70 72 70 67 68 75 78 80 80 82 82 75 75 60 61 65 84
72 71 67 68 64 62 60 59 59 62 62 62 63 64 64 65 66 68 69 69 68 70 74 79 80 80 78 74 69 58 59 63 81
76 76 75 71 69 64 61 59 58 58 60 62 59 62 64 64 65 66 69 71 73 76 77 77 78 79 73 71 67 56 57 67 84
76 77 76 74 69 63 61 61 61 59 55 57 58 60 62 64 65 65 65 67 66 70 72 75 79 75 72 63 68 54 55 62 83
75 74 73 72 70 66 65 63 60 58 58 55 57 58 60 62 61 62 64 65 65 68 73 73 72 72 71 69 65 61 54 54 62
72 70 69 68 65 62 61 64 66 60 56 59 59 59 59 60 63 68 68 65 64 68 67 67 69 69 70 72 69 55 55 54 55
71 70 67 70 69 68 68 66 63 59 59 62 63 61 60 61 64 69 68 67 63 65 67 70 67 71 72 73 71 70 56 55 56
72 71 70 73 71 69 67 68 69 68 65 66 65 63 62 63 66 66 69 74 74 74 71 71 72 71 69 69 70 65 62 61 66
72 71 71 71 70 69 68 68 67 68 67 66 66 64 66 66 68 67 66 67 66 69 62 58 68 70 71 69 69 59 48 48 56
71 70 70 69 70 69 68 67 66 66 66 66 66 66 68 69 70 69 70 67 63 47 47 45 44 43 50 60 47 44 43 41 41
66 69 68 65 65 68 67 66 66 66 65 65 64 66 66 68 64 70 68 68 68 62 52 46 44 44 44 44 42 42 41 41 41

GFSFLT1_sfc_temp_099.txt.gz
Temp
88 89 82 90 92 85 92 90 94 91 89 86 88 88 88 89 88 90 90 90 86 92 78 93 88 90 90 90 91 91 91 92 92
85 89 85 89 92 93 86 90 91 91 87 85 89 90 88 86 86 88 85 87 89 90 90 82 92 90 90 91 91 91 91 91 91
88 88 92 88 88 90 84 79 83 82 83 81 85 90 90 88 88 88 89 89 87 88 80 82 87 90 90 90 90 90 89 90 91
90 90 90 90 88 90 90 86 83 74 78 80 81 86 87 85 89 86 89 89 89 89 90 88 88 88 89 90 89 90 88 87 88
81 84 88 89 91 83 82 79 74 76 72 73 75 77 82 84 87 89 84 88 89 90 88 89 88 88 87 88 88 89 87 87 89
77 75 78 80 82 83 81 77 81 81 77 73 73 74 77 77 84 84 82 82 88 90 89 87 89 89 86 86 87 88 88 86 87
70 72 72 73 75 77 78 80 79 79 77 76 74 74 71 72 73 74 75 77 77 80 87 87 88 89 89 89 89 84 89 88 88
71 71 71 66 68 68 74 77 79 80 80 77 77 78 79 77 72 73 75 75 77 78 81 86 88 88 88 90 91 79 75 89 89
74 74 72 70 65 66 65 68 77 79 79 79 80 79 78 78 78 78 77 79 76 76 78 80 85 85 85 84 75 63 65 71 82
75 75 73 71 68 67 65 63 66 69 72 77 77 75 74 75 76 77 77 78 76 72 75 79 82 82 77 73 71 60 61 65 81
77 75 73 73 70 65 62 60 61 63 63 66 69 69 68 69 70 71 72 74 75 70 74 77 79 79 77 75 69 58 59 63 78
79 77 77 75 72 66 61 58 57 59 60 59 60 64 65 67 69 71 72 72 75 75 74 77 79 76 76 73 67 56 57 65 85
81 78 75 73 69 65 62 59 59 57 56 58 56 56 60 68 67 67 69 72 73 75 77 77 77 73 75 64 69 55 56 61 78
80 76 74 71 69 63 62 63 62 58 58 55 58 60 61 60 64 65 67 67 68 68 72 75 74 74 72 67 62 60 55 55 71
77 75 74 75 72 71 66 65 62 57 57 62 59 59 60 60 63 69 68 67 67 68 68 69 71 72 73 74 71 56 56 56 57
76 75 74 75 72 69 68 69 72 59 59 60 61 60 58 62 62 64 66 66 67 71 69 67 73 73 72 73 76 74 57 56 57
75 75 74 75 73 70 68 66 65 65 68 68 64 62 63 61 60 61 65 66 72 76 75 73 72 73 73 74 73 67 64 66 69
76 74 75 75 72 72 71 72 71 70 66 65 64 65 66 65 67 65 68 68 61 66 61 57 61 74 73 72 73 58 49 49 56
76 75 75 74 74 73 72 71 70 71 71 70 70 70 71 72 75 72 73 70 66 47 48 46 44 44 50 60 48 45 44 42 42
70 75 74 73 73 74 72 71 70 70 70 69 68 69 72 73 66 74 72 71 68 64 53 47 45 45 45 45 43 44 43 42 42

GFSFLT1_sfc_temp_102.txt.gz
Temp
73 74 78 83 79 74 86 84 87 81 83 82 84 85 84 84 85 85 83 82 77 73 72 72 79 83 84 86 86 87 86 85 84
71 72 73 75 77 84 74 73 77 80 82 82 84 86 85 86 86 86 84 84 87 82 73 73 72 71 84 85 83 86 83 84 83
75 74 73 79 75 74 74 73 72 80 85 84 83 83 86 85 84 84 87 87 84 82 71 70 71 73 80 85 85 85 86 84 82
81 82 77 72 74 76 73 76 80 79 82 81 81 82 79 83 83 85 85 86 87 86 74 72 71 75 83 82 85 86 82 83 83
82 86 79 73 74 73 80 78 81 77 75 75 76 76 78 83 75 76 82 78 74 85 84 82 82 84 81 82 83 83 82 82 84
76 82 81 79 78 77 79 80 80 79 77 76 75 77 76 76 79 79 80 79 73 73 82 84 86 84 80 80 81 81 80 81 81
75 75 75 79 78 78 77 79 79 79 80 79 76 73 75 75 74 76 75 78 79 79 79 79 80 82 80 80 83 82 81 81 80
73 72 72 74 70 71 75 77 79 81 80 79 77 74 75 76 76 73 73 74 74 75 75 76 78 79 81 72 71 68 69 72 77
71 72 72 70 70 72 68 72 75 77 77 77 79 76 75 76 76 76 76 75 74 74 74 75 76 76 77 71 67 63 64 67 77
72 70 69 68 67 67 65 65 69 70 76 78 77 77 77 75 75 77 77 77 75 75 73 73 73 72 70 65 63 60 61 65 75
74 71 69 69 67 64 61 62 62 63 65 69 69 69 73 73 75 74 75 75 75 74 74 71 72 71 70 68 63 58 59 63 73
76 73 72 71 69 65 61 59 60 60 60 60 63 64 65 68 70 71 71 72 73 75 72 70 72 74 70 67 61 56 57 64 74
78 71 70 68 65 62 60 59 59 58 58 58 56 57 60 64 67 68 69 70 70 72 75 75 74 72 70 65 62 56 56 58 72
75 74 70 68 65 62 60 61 60 56 56 55 58 59 59 60 63 65 67 68 69 70 70 73 72 71 67 64 62 59 56 56 65
72 70 70 70 65 62 63 63 62 59 57 59 60 59 60 61 62 63 64 66 67 69 68 68 69 70 70 69 65 58 56 56 56
71 74 73 74 70 66 65 64 63 60 58 61 62 62 60 59 62 63 64 66 64 65 65 65 66 67 70 70 66 61 57 57 58
73 73 73 73 70 68 66 69 69 64 62 61 61 60 60 62 61 60 63 62 60 61 67 67 69 69 68 70 69 66 62 60 58
72 71 73 73 71 70 67 67 66 68 68 68 67 66 65 65 65 64 62 54 52 57 49 50 55 58 64 62 60 54 48 49 55
68 69 71 70 72 71 70 70 69 68 68 67 66 65 65 65 68 65 68 63 57 47 48 46 45 44 50 55 49 46 45 43 43
66 69 70 73 73 72 71 70 69 70 70 69 68 68 71 71 68 71 69 69 66 59 51 48 46 45 46 46 45 45 44 43 42

GFSFLT1_sfc_temp_105.txt.gz
Temp
72 72 74 75 79 72 73 81 82 78 76 74 76 76 76 76 76 75 73 74 71 71 70 72 73 74 75 77 77 78 76 77 77
69 71 72 74 77 71 72 70 78 77 75 75 76 77 76 76 75 75 75 75 72 72 72 73 73 73 72 74 78 80 77 76 75
75 74 74 73 73 71 71 70 71 75 75 75 77 78 77 77 76 76 76 74 70 70 71 71 73 72 72 73 78 78 77 76 75
74 73 73 71 71 70 70 70 70 74 73 75 75 76 75 75 75 75 76 75 75 72 70 70 70 72 72 76 78 78 77 76 76
73 76 75 71 70 69 68 69 70 70 71 74 75 75 73 74 73 72 73 72 73 73 72 72 72 74 75 76 77 76 76 76 78
72 71 69 68 68 69 69 71 71 72 73 72 72 72 72 71 70 72 73 73 72 74 75 75 75 76 75 76 75 75 76 76 76
66 72 70 67 67 68 69 71 73 72 71 70 70 71 72 71 70 70 72 73 73 73 73 74 76 76 76 75 71 70 70 72 73
66 67 68 68 68 69 69 70 70 70 72 70 70 70 70 70 71 70 71 71 71 72 72 73 75 75 70 69 67 65 65 67 70
66 65 66 66 66 66 66 67 70 73 72 71 70 70 70 71 71 71 71 71 70 71 72 71 73 70 68 65 63 61 63 64 66
67 67 64 65 64 63 63 64 65 65 70 72 71 70 71 71 71 70 71 71 71 69 69 70 70 65 61 60 60 60 61 64 66
67 66 65 63 61 61 61 62 62 63 67 69 69 70 69 70 70 70 69 69 69 69 69 69 67 65 63 60 61 59 59 63 69
67 66 66 64 62 60 59 60 61 61 61 62 62 62 65 67 69 66 67 66 67 68 68 68 67 67 62 59 59 57 58 63 67
65 65 63 60 61 60 59 58 59 59 58 58 57 58 61 63 65 65 63 64 65 65 67 68 68 67 64 60 58 56 57 60 63
65 63 61 61 61 59 59 60 59 56 57 56 58 58 59 60 63 63 63 62 64 64 65 66 65 63 60 59 58 57 56 56 58
65 61 61 61 60 59 60 60 59 56 55 57 58 59 60 60 60 63 64 64 64 63 63 64 64 63 60 59 58 58 56 55 56
64 63 62 61 59 59 60 60 59 58 55 56 57 56 58 59 60 61 63 63 60 62 63 63 62 65 65 59 58 56 56 56 56
67 67 63 62 59 56 55 57 57 55 55 59 56 54 54 55 55 56 58 56 54 54 56 59 60 57 61 62 59 56 54 55 53
67 67 66 62 60 58 57 58 55 55 55 55 54 57 56 55 57 57 54 48 52 52 50 48 55 51 52 55 53 48 46 47 49
67 66 66 65 61 59 58 57 57 58 58 58 56 55 55 55 55 54 51 47 45 47 47 46 45 45 52 51 48 47 44 42 42
62 66 65 65 61 62 60 59 58 58 58 58 57 55 56 56 56 56 54 52 50 47 44 47 45 44 45 46 46 45 43 42 42

GFSFLT1_sfc_temp_108.txt.gz
Temp
71 72 72 73 75 74 75 77 77 76 73 71 72 73 73 74 73 72 71 71 71 71 70 70 73 73 74 75 75 75 75 73 74
70 72 72 72 72 71 70 72 75 75 73 73 72 74 74 73 73 73 72 73 71 71 72 73 72 74 73 74 75 75 75 73 74
71 71 70 71 70 71 70 69 68 71 74 74 74 73 75 74 72 74 73 71 71 72 72 72 72 72 72 74 74 75 74 73 74
70 72 70 68 68 70 70 72 72 69 70 74 74 74 73 73 73 73 73 71 71 71 70 70 71 71 72 73 74 75 74 73 74
71 75 72 69 68 68 69 70 70 70 69 70 73 72 72 73 73 73 73 72 72 70 69 69 69 70 72 73 75 74 74 74 75
68 69 68 68 68 67 67 69 70 71 69 69 72 71 72 72 71 71 72 71 71 71 72 72 71 72 73 74 74 73 73 73 73
66 66 67 67 66 67 67 68 70 69 71 72 71 70 71 70 70 70 71 71 70 71 72 71 71 72 73 70 68 68 69 70 71
66 65 66 66 66 66 66 67 70 70 70 70 70 69 69 69 69 70 70 70 70 71 71 71 71 69 68 66 65 65 64 67 68
65 66 67 66 66 67 67 68 68 70 69 69 69 68 68 69 69 69 69 70 71 70 71 70 70 67 65 63 63 62 63 65 66
64 65 65 65 65 66 67 66 69 68 70 69 69 68 69 70 69 69 69 70 70 68 69 69 65 60 59 60 61 61 62 65 67
63 64 63 63 61 61 61 63 63 66 69 69 68 68 69 69 69 68 68 68 67 67 67 66 62 60 59 62 61 59 60 66 69
63 62 61 61 61 60 61 62 62 63 64 65 66 67 68 69 69 68 66 66 66 66 66 65 63 62 60 61 58 57 59 65 67
60 59 59 58 60 60 60 59 61 61 59 61 60 61 62 65 66 65 64 64 63 64 66 66 64 61 60 60 58 57 57 60 62
60 59 58 59 61 58 58 60 60 58 58 57 58 60 60 61 63 63 63 62 62 63 64 64 62 62 58 58 57 56 55 56 59
60 58 59 61 59 58 59 59 59 57 56 58 59 59 59 59 60 63 64 64 62 61 63 62 61 58 56 58 57 56 54 54 55
60 59 58 61 60 59 59 59 59 57 56 58 58 59 58 59 60 61 61 60 59 60 61 64 63 62 59 58 59 58 54 54 55
60 59 57 56 56 55 53 54 55 53 54 55 54 53 53 54 55 54 54 57 54 54 57 57 59 57 57 56 54 56 55 52 50
63 61 60 57 56 54 54 54 52 53 53 53 52 52 53 52 53 51 48 46 47 51 50 50 54 53 53 55 54 54 48 48 50
61 61 59 57 57 56 55 54 53 53 53 53 52 51 51 52 51 49 48 47 47 47 47 46 45 46 49 50 48 46 45 43 43
60 61 60 59 57 57 55 54 54 54 54 54 53 51 51 52 52 51 49 47 47 46 44 46 45 44 45 45 47 45 43 42 43

GFSFLT1_sfc_temp_111.txt.gz
Temp
71 71 74 74 74 73 73 75 74 74 71 69 70 71 71 71 72 70 70 70 69 70 70 70 72 73 73 73 73 72 72 72 72
69 70 69 74 74 73 71 72 73 74 71 70 71 71 71 71 71 71 71 71 71 70 71 71 72 73 73 74 74 74 73 72 72
69 71 70 71 72 72 72 72 72 72 72 71 71 71 71 71 71 71 72 71 71 70 71 72 71 71 72 73 73 74 73 72 72
70 72 70 70 69 71 71 72 71 71 71 71 71 71 71 71 71 71 71 71 71 71 71 70 70 70 70 71 72 73 73 72 72
69 73 72 70 69 68 69 70 70 70 69 71 72 72 71 71 71 71 71 71 71 71 69 69 69 69 69 71 72 73 73 73 74
68 69 67 67 67 67 68 69 68 68 68 68 70 71 70 71 71 71 70 69 70 71 70 70 70 70 71 71 72 72 72 72 73
66 67 68 67 67 66 66 67 67 68 69 69 70 71 72 71 71 71 71 71 70 69 70 69 71 71 71 71 69 69 69 70 71
65 65 67 67 66 66 66 66 67 68 69 71 70 71 70 71 71 72 71 70 70 70 70 71 71 69 68 66 66 65 64 66 67
64 66 68 68 69 68 66 67 69 69 69 69 69 69 70 71 70 70 70 69 69 70 70 70 70 67 65 64 64 63 63 65 65
63 65 65 64 64 66 66 67 68 68 68 69 68 68 69 69 68 68 68 69 69 69 69 69 64 62 61 61 61 61 62 64 67
63 62 62 62 62 62 62 64 65 67 68 68 68 67 67 68 68 68 68 68 67 67 67 64 59 58 60 62 62 60 62 66 68
61 61 61 61 61 60 62 63 63 66 66 67 67 67 68 68 68 67 67 66 65 66 64 61 58 59 58 59 60 57 59 64 62
58 58 58 60 60 60 60 61 62 62 64 66 66 67 67 67 67 66 65 65 65 65 64 62 61 59 59 59 58 56 57 61 63
57 57 57 60 59 57 59 61 61 59 60 59 61 63 63 64 64 64 64 63 64 65 63 61 59 59 57 57 57 55 55 57 58
56 56 59 60 58 57 58 58 58 57 57 59 60 62 62 61 61 62 63 64 63 63 62 62 61 59 55 56 55 55 54 54 55
58 58 59 60 58 58 58 59 59 56 56 58 58 58 58 58 58 59 59 59 61 62 63 63 60 58 56 54 57 54 53 53 54
58 58 57 58 59 57 56 56 55 56 55 56 56 56 57 58 57 56 58 58 58 60 61 61 61 60 58 56 55 57 56 56 52
58 57 56 56 55 53 52 51 52 53 53 53 52 51 51 50 51 50 48 46 50 53 46 49 53 52 53 53 55 56 51 49 49
57 55 56 55 54 53 53 51 51 51 52 52 51 50 50 50 50 48 47 47 46 47 47 45 44 45 48 49 48 46 45 43 43
57 56 57 56 56 55 53 52 52 52 51 52 51 50 50 50 50 49 48 47 48 49 47 47 45 45 45 45 47 44 42 42 42

GFSFLT1_sfc_temp_114.txt.gz
Temp
70 71 74 73 75 72 73 73 73 73 71 71 71 72 71 72 72 72 71 72 71 71 72 72 74 74 75 75 75 74 74 75 76
68 70 71 73 74 73 71 72 73 73 71 71 71 72 71 71 72 72 72 72 72 71 72 73 74 75 75 75 76 76 75 75 75
68 69 70 72 73 72 71 72 72 73 72 71 72 72 72 72 72 73 72 73 72 72 72 72 73 73 74 74 75 75 75 75 76
72 71 70 71 72 72 71 71 71 71 70 70 70 72 71 71 72 72 73 72 72 72 73 73 73 72 73 73 74 75 74 74 75
71 74 72 71 71 70 69 70 71 70 70 71 71 72 72 72 72 72 72 72 73 72 71 72 72 73 72 72 72 75 74 74 75
68 70 70 68 68 69 68 69 71 71 71 71 72 72 72 71 71 71 71 72 72 72 71 72 72 71 71 72 74 75 75 74 74
65 66 66 67 67 68 68 68 69 69 69 71 71 71 71 70 70 71 72 72 71 71 71 71 72 72 73 74 73 73 73 72 72
64 65 66 65 66 66 67 67 67 68 68 69 70 70 71 70 71 72 71 70 70 71 71 71 70 71 71 70 70 69 68 70 71
64 65 67 68 67 67 66 67 67 68 68 69 70 70 69 70 71 70 70 70 70 70 70 70 70 69 68 68 67 63 64 66 68
62 64 64 64 65 66 66 67 67 67 68 69 69 69 69 68 69 69 69 69 68 68 68 69 68 66 64 64 64 61 62 65 68
63 63 63 63 63 64 63 65 67 68 68 68 67 67 68 68 69 68 68 69 69 69 69 67 64 61 61 63 64 59 61 65 70
60 61 61 61 61 61 62 63 65 66 67 67 68 67 67 68 68 68 68 68 68 67 66 63 61 62 61 61 60 57 59 65 64
59 59 60 59 60 61 60 61 64 66 66 66 66 66 66 68 68 68 66 66 66 67 65 62 62 61 60 59 59 56 56 63 65
58 59 59 59 58 57 58 61 61 61 60 60 62 63 63 64 65 65 65 65 66 66 63 62 61 60 59 58 57 57 54 56 63
57 58 60 60 58 57 58 60 59 57 57 59 61 62 61 60 61 62 63 63 64 65 63 60 60 59 59 58 58 54 54 54 55
57 58 58 60 59 57 58 59 58 56 56 57 58 58 58 59 58 59 59 60 62 63 63 62 60 60 59 58 59 58 54 53 55
57 58 57 59 59 57 56 56 57 57 57 58 58 56 57 57 57 55 56 56 58 58 61 61 61 59 59 58 57 58 58 57 57
56 57 57 57 56 55 54 54 54 56 55 56 54 54 55 55 55 54 52 49 50 54 51 53 59 58 59 58 58 58 52 52 54
56 56 56 55 55 55 54 55 54 54 55 55 54 53 54 53 53 52 52 52 51 48 47 45 44 45 51 54 49 47 45 43 43
57 57 56 56 57 56 55 54 54 54 54 55 54 54 54 54 54 54 52 52 53 55 52 47 45 45 45 45 46 45 43 42 42

GFSFLT1_sfc_temp_117.txt.gz
Temp
76 79 83 82 82 82 81 82 82 81 80 79 80 81 80 81 81 84 84 83 82 84 84 84 84 84 83 84 84 84 83 86 87
73 73 80 81 83 78 81 81 82 82 81 80 81 82 81 80 81 81 83 82 82 84 82 84 82 83 83 84 84 84 83 86 84
75 74 75 80 81 82 82 82 82 83 83 81 82 83 82 83 83 82 82 82 81 81 81 81 81 81 82 83 83 84 82 82 84
75 73 72 74 74 75 77 82 81 80 81 81 81 81 81 81 81 82 81 81 82 81 80 80 79 81 82 82 82 83 82 81 83
73 71 72 74 73 72 77 79 81 80 79 80 81 82 80 80 80 80 81 81 81 80 80 81 81 81 80 81 81 82 82 82 84
76 75 70 71 70 68 72 78 79 79 79 79 80 80 80 79 79 79 79 80 79 80 80 80 81 80 79 80 81 81 82 82 82
75 75 74 70 72 68 70 75 77 76 76 74 78 79 80 79 79 80 80 80 79 79 79 79 79 80 80 81 82 82 81 80 80
71 70 74 73 73 74 70 68 73 78 73 72 78 76 79 79 78 77 79 79 79 78 78 79 79 79 78 79 79 78 77 79 80
70 69 71 72 71 69 68 69 70 71 75 73 72 77 77 78 74 73 76 73 76 76 75 74 77 77 70 70 73 64 65 67 77
70 70 72 72 71 67 67 66 68 68 70 73 73 74 74 73 72 74 72 71 72 73 71 70 73 70 68 68 67 62 62 65 76
64 64 64 66 69 67 68 70 70 68 69 69 70 68 69 70 69 69 71 70 70 70 70 69 68 66 65 64 62 59 60 64 74
62 62 62 62 64 64 66 68 72 71 70 69 70 68 70 69 70 69 68 68 69 69 70 68 64 63 64 64 63 57 59 66 70
62 63 62 61 61 62 62 63 65 68 68 68 68 67 67 68 68 69 69 69 68 67 67 64 62 62 65 62 65 56 57 67 77
63 64 62 61 61 59 60 62 63 63 64 63 65 65 66 65 64 66 67 67 67 65 63 62 61 62 63 63 63 62 55 57 74
62 61 62 63 61 59 59 60 60 59 59 61 63 63 64 64 63 62 63 64 66 63 61 60 59 59 60 59 60 56 54 54 56
65 65 64 64 62 60 60 58 59 56 56 59 60 60 59 59 61 60 59 61 63 63 63 61 61 64 61 59 61 61 55 54 56
66 66 65 66 65 60 59 60 59 58 58 58 58 56 56 58 55 56 57 55 58 60 61 61 60 60 61 60 61 62 63 64 66
67 66 66 66 65 63 62 62 62 63 62 63 62 61 60 58 57 54 52 51 52 54 51 50 57 58 62 63 61 59 52 55 60
66 65 66 65 64 63 62 63 62 62 63 65 64 63 64 64 62 59 58 57 56 48 48 47 45 46 54 57 50 46 45 43 44
61 67 67 66 65 64 64 63 62 63 65 65 65 65 65 63 63 66 65 65 66 66 58 48 46 45 46 46 48 45 44 43 43

GFSFLT1_sfc_temp_120.txt.gz
Temp
86 89 92 92 92 91 90 91 90 89 87 84 86 86 86 86 86 85 88 88 86 88 88 89 89 89 89 89 89 89 89 91 91
83 87 89 92 93 92 90 90 89 89 87 86 86 88 86 86 86 85 89 89 85 88 85 86 87 88 88 89 89 89 88 91 89
78 83 87 90 92 92 91 91 90 90 89 87 87 89 88 88 88 87 88 88 85 88 89 86 87 87 88 88 88 88 86 90 90
79 77 79 87 90 91 91 91 91 89 89 88 87 88 88 88 89 89 88 88 88 86 86 87 86 86 87 87 87 88 86 87 88
78 78 79 78 88 89 89 89 90 89 88 88 88 88 87 87 87 87 88 86 88 87 86 86 86 87 86 86 87 88 86 85 89
75 79 79 74 74 83 82 78 87 89 88 87 89 87 87 86 86 85 86 86 87 87 87 86 88 87 85 86 86 86 86 84 86
76 73 73 71 69 75 75 77 77 87 88 89 88 87 86 85 85 86 86 86 86 86 86 86 86 86 86 86 87 87 86 85 85
78 78 78 76 70 69 70 70 74 83 86 86 85 84 86 85 86 86 84 84 84 85 85 86 86 85 85 85 86 88 84 85 85
75 77 79 80 74 73 69 71 72 74 82 82 82 80 76 85 83 83 83 84 82 83 83 84 84 84 84 82 85 64 66 69 82
76 77 78 77 77 75 71 69 70 70 76 82 79 72 74 80 80 82 82 81 80 78 74 77 77 81 80 76 78 62 62 65 76
67 69 72 75 76 75 68 69 72 71 71 74 79 73 71 77 72 74 79 73 73 72 73 73 73 74 74 74 72 59 60 63 72
63 64 64 64 65 68 70 69 68 68 68 68 69 70 72 74 71 73 70 69 70 70 70 70 68 65 64 63 63 58 59 65 74
62 62 63 63 64 66 66 66 71 70 68 68 69 69 72 73 73 72 69 69 68 69 69 66 63 61 61 60 63 58 57 64 77
64 64 63 63 61 61 63 65 69 69 71 70 70 70 68 67 67 67 68 69 68 66 62 60 59 59 58 59 62 64 56 57 75
64 64 65 65 61 60 60 62 62 60 61 64 67 66 66 66 65 66 66 66 63 62 61 59 58 56 55 56 58 55 55 55 57
68 67 65 64 61 59 58 59 59 58 58 61 62 61 60 61 62 63 63 65 64 62 62 60 58 57 57 58 60 62 56 56 57
68 69 68 68 67 63 60 61 59 57 58 59 58 57 57 57 59 62 62 61 61 62 62 61 60 59 58 57 61 64 65 68 72
71 71 71 70 68 68 66 66 66 67 65 64 62 60 60 61 62 57 53 51 53 53 50 53 60 59 61 59 61 63 55 55 66
72 71 71 70 70 69 68 68 68 69 70 71 70 71 72 68 62 63 60 57 54 49 50 49 48 48 53 58 51 46 45 45 45
67 73 73 71 70 70 71 70 70 70 72 73 70 70 68 69 71 75 73 73 73 71 59 49 46 46 47 47 52 45 44 44 46

GFSFLT1_sfc_temp_123.txt.gz
Temp
87 86 90 91 92 94 92 91 94 92 89 86 87 87 86 87 88 90 90 89 92 91 92 93 90 91 91 90 91 91 90 91 91
82 86 87 87 92 97 93 92 92 92 89 87 88 89 88 86 87 87 89 88 88 91 90 92 90 90 90 90 90 90 90 90 90
86 86 87 87 90 93 96 95 94 93 92 88 89 90 90 89 89 88 88 86 87 88 87 88 89 88 89 89 89 90 88 90 91
88 87 88 91 78 90 95 95 95 92 91 89 88 89 90 89 90 90 90 89 88 87 87 87 87 87 86 87 88 88 85 84 86
83 87 86 83 89 86 88 93 94 92 91 91 90 90 89 89 89 90 91 89 90 87 86 86 86 87 87 88 87 86 84 84 88
76 84 81 80 81 78 85 92 92 92 91 90 91 90 89 89 89 88 88 89 89 89 85 87 90 86 85 85 86 86 87 86 86
77 74 74 71 72 73 83 89 90 91 91 91 90 90 89 88 88 89 89 88 88 89 89 87 88 88 86 86 88 89 87 85 85
76 71 69 68 70 69 74 83 84 85 87 90 90 89 88 87 88 89 88 87 87 87 87 88 88 88 88 87 87 88 87 86 85
77 79 80 77 76 73 70 75 82 81 76 82 85 86 86 86 86 85 84 84 84 84 84 84 85 84 85 83 86 66 68 70 84
70 81 82 83 76 69 70 70 74 79 75 76 79 80 84 83 84 83 84 84 83 81 80 81 81 81 77 76 70 63 63 65 80
66 67 72 67 72 74 72 70 71 72 72 72 75 79 80 81 81 81 81 77 80 78 78 77 75 73 71 72 61 60 61 64 78
62 62 63 64 67 71 68 68 69 68 68 69 69 73 76 79 78 74 74 77 73 73 74 77 71 68 66 65 61 56 59 63 77
65 62 62 63 64 66 68 70 69 67 66 67 67 68 70 74 77 74 74 75 75 74 72 70 63 61 60 61 61 55 57 59 68
65 64 62 62 61 61 62 65 71 69 69 68 69 69 68 68 68 68 68 68 68 65 62 60 59 58 57 56 56 56 55 56 61
67 65 64 63 59 58 59 62 63 62 63 65 68 67 67 67 67 67 67 64 62 61 61 59 57 56 54 54 53 52 53 55 57
67 65 64 65 61 58 58 59 60 57 59 61 62 62 61 62 62 63 64 66 63 62 61 60 58 57 57 56 56 56 55 56 58
69 68 67 67 64 62 59 59 58 58 59 60 59 58 59 58 59 63 67 66 62 64 63 61 60 59 58 57 56 58 63 65 68
70 70 69 70 69 66 66 65 63 63 61 62 60 59 61 60 58 57 58 61 63 60 54 59 62 62 61 59 59 61 57 57 65
72 72 72 71 70 69 69 70 69 69 72 72 70 70 71 67 65 67 64 57 55 49 49 49 49 50 54 60 51 48 47 46 47
68 73 73 72 71 71 71 71 71 72 74 73 72 69 70 73 73 75 73 73 72 65 56 49 47 47 48 48 52 47 45 45 46